Observation data for Rotan on 03/13/2018      Previous  Date  Next       Current Mesonet Observations  Soil Data  Daily Summary Page  Observations in Plain Language
KRO1 130500Z 11003KT 07/M07 A3027 RMK A01 T00701065  RH  038%=      5-min Rain = 0
KRO1 130501Z 11003KT 07/M06 A3027 RMK A01 T00701064  RH  038%=      5-min Rain = 0
KRO1 130502Z 11003KT 07/M06 A3027 RMK A01 T00691064  RH  038%=      5-min Rain = 0
KRO1 130503Z 11003KT 07/M07 A3027 RMK A01 T00691065  RH  038%=      5-min Rain = 0
KRO1 130504Z 11003KT 07/M07 A3027 RMK A01 T00681066  RH  038%=      5-min Rain = 0
KRO1 130505Z 11003KT 07/M07 A3027 RMK A01 T00671066  RH  038%=      5-min Rain = 0
KRO1 130506Z 12003KT 07/M07 A3027 RMK A01 T00671067  RH  038%=      5-min Rain = 0
KRO1 130507Z 12003KT 07/M07 A3027 RMK A01 T00661068  RH  038%=      5-min Rain = 0
KRO1 130508Z 12004KT 07/M07 A3027 RMK A01 T00661068  RH  038%=      5-min Rain = 0
KRO1 130509Z 12004KT 07/M07 A3027 RMK A01 T00651068  RH  038%=      5-min Rain = 0
KRO1 130510Z 12004KT 07/M07 A3027 RMK A01 T00651069  RH  038%=      5-min Rain = 0
KRO1 130511Z 12004KT 07/M07 A3027 RMK A01 T00651069  RH  038%=      5-min Rain = 0
KRO1 130512Z 12004KT 06/M07 A3027 RMK A01 T00641069  RH  038%=      5-min Rain = 0
KRO1 130513Z 12003KT 06/M07 A3027 RMK A01 T00641069  RH  038%=      5-min Rain = 0
KRO1 130514Z 12003KT 06/M07 A3027 RMK A01 T00641069  RH  038%=      5-min Rain = 0
KRO1 130515Z 12004KT 06/M07 A3027 RMK A01 T00641069  RH  038%=      5-min Rain = 0
KRO1 130516Z 12004KT 06/M07 A3027 RMK A01 T00641069  RH  038%=      5-min Rain = 0
KRO1 130517Z 12004KT 06/M07 A3027 RMK A01 T00631069  RH  038%=      5-min Rain = 0
KRO1 130518Z 12004KT 06/M07 A3027 RMK A01 T00631070  RH  038%=      5-min Rain = 0
KRO1 130519Z 12004KT 06/M07 A3027 RMK A01 T00621072  RH  038%=      5-min Rain = 0
KRO1 130520Z 12004KT 06/M07 A3027 RMK A01 T00611072  RH  038%=      5-min Rain = 0
KRO1 130521Z 12005KT 06/M07 A3027 RMK A01 T00601071  RH  038%=      5-min Rain = 0
KRO1 130522Z 12005KT 06/M07 A3027 RMK A01 T00591071  RH  039%=      5-min Rain = 0
KRO1 130523Z 12005KT 06/M07 A3027 RMK A01 T00591070  RH  039%=      5-min Rain = 0
KRO1 130524Z 12005KT 06/M07 A3027 RMK A01 T00591068  RH  039%=      5-min Rain = 0
KRO1 130525Z 12005KT 06/M07 A3027 RMK A01 T00601067  RH  040%=      5-min Rain = 0
KRO1 130526Z 12005KT 06/M07 A3027 RMK A01 T00601067  RH  040%=      5-min Rain = 0
KRO1 130527Z 12005KT 06/M07 A3027 RMK A01 T00611067  RH  039%=      5-min Rain = 0
KRO1 130528Z 12004KT 06/M07 A3027 RMK A01 T00611070  RH  038%=      5-min Rain = 0
KRO1 130529Z 12004KT 06/M07 A3027 RMK A01 T00591072  RH  038%=      5-min Rain = 0
KRO1 130530Z 12004KT 06/M07 A3027 RMK A01 T00581072  RH  038%=      5-min Rain = 0
KRO1 130531Z 12004KT 06/M07 A3027 RMK A01 T00571073  RH  039%=      5-min Rain = 0
KRO1 130532Z 12004KT 06/M07 A3027 RMK A01 T00561073  RH  039%=      5-min Rain = 0
KRO1 130533Z 12004KT 06/M07 A3026 RMK A01 T00551073  RH  039%=      5-min Rain = 0
KRO1 130534Z 12004KT 06/M07 A3026 RMK A01 T00551072  RH  040%=      5-min Rain = 0
KRO1 130535Z 12004KT 06/M07 A3026 RMK A01 T00551069  RH  040%=      5-min Rain = 0
KRO1 130536Z 12004KT 06/M07 A3026 RMK A01 T00561068  RH  040%=      5-min Rain = 0
KRO1 130537Z 12004KT 06/M07 A3026 RMK A01 T00571067  RH  041%=      5-min Rain = 0
KRO1 130538Z 12005KT 06/M07 A3026 RMK A01 T00581066  RH  041%=      5-min Rain = 0
KRO1 130539Z 11005KT 06/M07 A3026 RMK A01 T00581067  RH  040%=      5-min Rain = 0
KRO1 130540Z 11005KT 06/M07 A3026 RMK A01 T00581066  RH  040%=      5-min Rain = 0
KRO1 130541Z 11005KT 06/M07 A3026 RMK A01 T00581065  RH  041%=      5-min Rain = 0
KRO1 130542Z 11005KT 06/M06 A3026 RMK A01 T00591064  RH  041%=      5-min Rain = 0
KRO1 130543Z 11005KT 06/M06 A3026 RMK A01 T00601064  RH  041%=      5-min Rain = 0
KRO1 130544Z 12005KT 06/M06 A3026 RMK A01 T00601064  RH  041%=      5-min Rain = 0
KRO1 130545Z 11006KT 06/M06 A3026 RMK A01 T00611062  RH  041%=      5-min Rain = 0
KRO1 130546Z 12006KT 06/M06 A3026 RMK A01 T00611062  RH  041%=      5-min Rain = 0
KRO1 130547Z 12006KT 06/M06 A3026 RMK A01 T00621061  RH  041%=      5-min Rain = 0
KRO1 130548Z 12005KT 06/M06 A3026 RMK A01 T00631061  RH  041%=      5-min Rain = 0
KRO1 130549Z 12005KT 06/M06 A3026 RMK A01 T00641061  RH  041%=      5-min Rain = 0
KRO1 130550Z 12005KT 06/M06 A3026 RMK A01 T00641061  RH  040%=      5-min Rain = 0
KRO1 130551Z 12005KT 06/M06 A3026 RMK A01 T00641061  RH  040%=      5-min Rain = 0
KRO1 130552Z 12005KT 07/M06 A3026 RMK A01 T00651062  RH  040%=      5-min Rain = 0
KRO1 130553Z 11004KT 06/M06 A3026 RMK A01 T00641062  RH  040%=      5-min Rain = 0
KRO1 130554Z 12004KT 06/M06 A3026 RMK A01 T00631062  RH  040%=      5-min Rain = 0
KRO1 130555Z 12004KT 06/M06 A3026 RMK A01 T00631062  RH  040%=      5-min Rain = 0
KRO1 130556Z 12004KT 06/M06 A3026 RMK A01 T00631062  RH  041%=      5-min Rain = 0
KRO1 130557Z 11004KT 06/M06 A3026 RMK A01 T00621062  RH  041%=      5-min Rain = 0
KRO1 130558Z 11005KT 06/M06 A3026 RMK A01 T00611064  RH  040%=      5-min Rain = 0
KRO1 130559Z 11005KT 06/M06 A3026 RMK A01 T00601063  RH  041%=      5-min Rain = 0
KRO1 130600Z 11004KT 06/M06 A3026 RMK A01 T00591064  RH  041%=      5-min Rain = 0
KRO1 130601Z 11004KT 06/M06 A3026 RMK A01 T00591064  RH  041%=      5-min Rain = 0
KRO1 130602Z 11005KT 06/M06 A3026 RMK A01 T00591063  RH  041%=      5-min Rain = 0
KRO1 130603Z 11004KT 06/M06 A3026 RMK A01 T00591063  RH  041%=      5-min Rain = 0
KRO1 130604Z 11004KT 06/M06 A3026 RMK A01 T00591062  RH  041%=      5-min Rain = 0
KRO1 130605Z 11004KT 06/M06 A3026 RMK A01 T00591062  RH  042%=      5-min Rain = 0
KRO1 130606Z 11004KT 06/M06 A3026 RMK A01 T00591062  RH  041%=      5-min Rain = 0
KRO1 130607Z 11004KT 06/M06 A3026 RMK A01 T00591063  RH  041%=      5-min Rain = 0
KRO1 130608Z 11004KT 06/M06 A3026 RMK A01 T00581063  RH  041%=      5-min Rain = 0
KRO1 130609Z 11004KT 06/M06 A3026 RMK A01 T00581062  RH  042%=      5-min Rain = 0
KRO1 130610Z 11004KT 06/M06 A3026 RMK A01 T00581061  RH  042%=      5-min Rain = 0
KRO1 130611Z 11003KT 06/M06 A3026 RMK A01 T00591061  RH  042%=      5-min Rain = 0
KRO1 130612Z 11004KT 06/M06 A3026 RMK A01 T00591061  RH  042%=      5-min Rain = 0
KRO1 130613Z 11004KT 06/M06 A3026 RMK A01 T00591061  RH  042%=      5-min Rain = 0
KRO1 130614Z 11003KT 06/M06 A3026 RMK A01 T00591061  RH  042%=      5-min Rain = 0
KRO1 130615Z 11003KT 06/M06 A3026 RMK A01 T00601060  RH  042%=      5-min Rain = 0
KRO1 130616Z 11004KT 06/M06 A3026 RMK A01 T00601060  RH  042%=      5-min Rain = 0
KRO1 130617Z 11004KT 06/M06 A3026 RMK A01 T00601061  RH  042%=      5-min Rain = 0
KRO1 130618Z 11004KT 06/M06 A3026 RMK A01 T00601060  RH  042%=      5-min Rain = 0
KRO1 130619Z 12004KT 06/M06 A3026 RMK A01 T00611060  RH  042%=      5-min Rain = 0
KRO1 130620Z 12004KT 06/M06 A3026 RMK A01 T00601060  RH  042%=      5-min Rain = 0
KRO1 130621Z 12004KT 06/M06 A3026 RMK A01 T00601060  RH  042%=      5-min Rain = 0
KRO1 130622Z 12004KT 06/M06 A3026 RMK A01 T00611059  RH  042%=      5-min Rain = 0
KRO1 130623Z 12004KT 06/M06 A3026 RMK A01 T00611059  RH  042%=      5-min Rain = 0
KRO1 130624Z 12004KT 06/M06 A3026 RMK A01 T00611060  RH  042%=      5-min Rain = 0
KRO1 130625Z 12004KT 06/M06 A3026 RMK A01 T00611060  RH  042%=      5-min Rain = 0
KRO1 130626Z 13004KT 06/M06 A3026 RMK A01 T00611060  RH  042%=      5-min Rain = 0
KRO1 130627Z 13004KT 06/M06 A3026 RMK A01 T00611060  RH  042%=      5-min Rain = 0
KRO1 130628Z 13004KT 06/M06 A3026 RMK A01 T00611060  RH  041%=      5-min Rain = 0
KRO1 130629Z 12004KT 06/M06 A3026 RMK A01 T00601061  RH  042%=      5-min Rain = 0
KRO1 130630Z 12004KT 06/M06 A3026 RMK A01 T00601061  RH  042%=      5-min Rain = 0
KRO1 130631Z 12004KT 06/M06 A3026 RMK A01 T00591061  RH  042%=      5-min Rain = 0
KRO1 130632Z 12004KT 06/M06 A3026 RMK A01 T00591061  RH  042%=      5-min Rain = 0
KRO1 130633Z 12004KT 06/M06 A3026 RMK A01 T00581061  RH  042%=      5-min Rain = 0
KRO1 130634Z 13004KT 06/M06 A3026 RMK A01 T00581061  RH  042%=      5-min Rain = 0
KRO1 130635Z 13004KT 06/M06 A3026 RMK A01 T00581061  RH  042%=      5-min Rain = 0
KRO1 130636Z 12005KT 06/M06 A3026 RMK A01 T00581061  RH  042%=      5-min Rain = 0
KRO1 130637Z 13004KT 06/M06 A3026 RMK A01 T00581061  RH  042%=      5-min Rain = 0
KRO1 130638Z 13004KT 06/M06 A3026 RMK A01 T00581063  RH  041%=      5-min Rain = 0
KRO1 130639Z 13004KT 06/M07 A3026 RMK A01 T00571065  RH  041%=      5-min Rain = 0
KRO1 130640Z 13004KT 06/M07 A3026 RMK A01 T00561065  RH  041%=      5-min Rain = 0
KRO1 130641Z 13004KT 06/M06 A3026 RMK A01 T00561063  RH  042%=      5-min Rain = 0
KRO1 130642Z 13004KT 06/M06 A3026 RMK A01 T00561062  RH  042%=      5-min Rain = 0
KRO1 130643Z 13005KT 06/M06 A3026 RMK A01 T00551062  RH  043%=      5-min Rain = 0
KRO1 130644Z 12005KT 06/M06 A3026 RMK A01 T00551062  RH  043%=      5-min Rain = 0
KRO1 130645Z 13005KT 06/M06 A3026 RMK A01 T00551062  RH  043%=      5-min Rain = 0
KRO1 130646Z 13005KT 06/M06 A3026 RMK A01 T00551062  RH  043%=      5-min Rain = 0
KRO1 130647Z 12005KT 05/M06 A3026 RMK A01 T00541063  RH  043%=      5-min Rain = 0
KRO1 130648Z 12005KT 05/M06 A3026 RMK A01 T00541063  RH  043%=      5-min Rain = 0
KRO1 130649Z 12005KT 05/M06 A3026 RMK A01 T00541063  RH  043%=      5-min Rain = 0
KRO1 130650Z 12005KT 05/M06 A3026 RMK A01 T00541062  RH  043%=      5-min Rain = 0
KRO1 130651Z 12004KT 05/M06 A3026 RMK A01 T00541062  RH  043%=      5-min Rain = 0
KRO1 130652Z 12005KT 05/M06 A3026 RMK A01 T00531063  RH  043%=      5-min Rain = 0
KRO1 130653Z 12005KT 05/M06 A3026 RMK A01 T00531063  RH  043%=      5-min Rain = 0
KRO1 130654Z 12005KT 05/M06 A3026 RMK A01 T00531063  RH  043%=      5-min Rain = 0
KRO1 130655Z 12005KT 05/M06 A3025 RMK A01 T00531062  RH  043%=      5-min Rain = 0
KRO1 130656Z 12005KT 05/M06 A3025 RMK A01 T00531062  RH  043%=      5-min Rain = 0
KRO1 130657Z 12005KT 05/M06 A3025 RMK A01 T00531062  RH  043%=      5-min Rain = 0
KRO1 130658Z 12005KT 05/M06 A3025 RMK A01 T00521063  RH  043%=      5-min Rain = 0
KRO1 130659Z 13005KT 05/M06 A3025 RMK A01 T00521063  RH  043%=      5-min Rain = 0
KRO1 130700Z 13005KT 05/M06 A3025 RMK A01 T00521062  RH  043%=      5-min Rain = 0
KRO1 130701Z 13005KT 05/M06 A3025 RMK A01 T00521062  RH  043%=      5-min Rain = 0
KRO1 130702Z 12005KT 05/M06 A3025 RMK A01 T00521062  RH  043%=      5-min Rain = 0
KRO1 130703Z 13005KT 05/M06 A3025 RMK A01 T00521063  RH  043%=      5-min Rain = 0
KRO1 130704Z 13005KT 05/M06 A3025 RMK A01 T00511064  RH  043%=      5-min Rain = 0
KRO1 130705Z 13006KT 05/M06 A3025 RMK A01 T00511063  RH  044%=      5-min Rain = 0
KRO1 130706Z 13006KT 05/M06 A3025 RMK A01 T00511064  RH  043%=      5-min Rain = 0
KRO1 130707Z 13006KT 05/M06 A3025 RMK A01 T00511064  RH  043%=      5-min Rain = 0
KRO1 130708Z 13006KT 05/M06 A3025 RMK A01 T00501064  RH  043%=      5-min Rain = 0
KRO1 130709Z 13006KT 05/M06 A3025 RMK A01 T00501064  RH  043%=      5-min Rain = 0
KRO1 130710Z 13006KT 05/M06 A3025 RMK A01 T00501064  RH  043%=      5-min Rain = 0
KRO1 130711Z 13005KT 05/M06 A3025 RMK A01 T00501063  RH  044%=      5-min Rain = 0
KRO1 130712Z 13005KT 05/M06 A3025 RMK A01 T00511063  RH  044%=      5-min Rain = 0
KRO1 130713Z 13005KT 05/M06 A3025 RMK A01 T00511064  RH  043%=      5-min Rain = 0
KRO1 130714Z 13005KT 05/M06 A3025 RMK A01 T00511064  RH  043%=      5-min Rain = 0
KRO1 130715Z 13005KT 05/M07 A3025 RMK A01 T00511065  RH  043%=      5-min Rain = 0
KRO1 130716Z 13005KT 05/M07 A3025 RMK A01 T00511065  RH  043%=      5-min Rain = 0
KRO1 130717Z 13005KT 05/M07 A3025 RMK A01 T00501065  RH  043%=      5-min Rain = 0
KRO1 130718Z 13005KT 05/M07 A3025 RMK A01 T00491066  RH  043%=      5-min Rain = 0
KRO1 130719Z 13005KT 05/M07 A3025 RMK A01 T00491066  RH  043%=      5-min Rain = 0
KRO1 130720Z 13005KT 05/M07 A3025 RMK A01 T00491067  RH  043%=      5-min Rain = 0
KRO1 130721Z 13005KT 05/M07 A3025 RMK A01 T00481065  RH  043%=      5-min Rain = 0
KRO1 130722Z 13005KT 05/M06 A3025 RMK A01 T00481064  RH  044%=      5-min Rain = 0
KRO1 130723Z 13005KT 05/M06 A3025 RMK A01 T00481064  RH  044%=      5-min Rain = 0
KRO1 130724Z 14005KT 05/M06 A3025 RMK A01 T00481064  RH  044%=      5-min Rain = 0
KRO1 130725Z 14005KT 05/M06 A3025 RMK A01 T00491064  RH  044%=      5-min Rain = 0
KRO1 130726Z 13005KT 05/M06 A3025 RMK A01 T00481064  RH  044%=      5-min Rain = 0
KRO1 130727Z 13005KT 05/M06 A3025 RMK A01 T00481063  RH  044%=      5-min Rain = 0
KRO1 130728Z 13005KT 05/M06 A3025 RMK A01 T00481064  RH  044%=      5-min Rain = 0
KRO1 130729Z 12004KT 05/M06 A3025 RMK A01 T00481064  RH  044%=      5-min Rain = 0
KRO1 130730Z 12005KT 05/M06 A3025 RMK A01 T00481064  RH  044%=      5-min Rain = 0
KRO1 130731Z 12004KT 05/M06 A3025 RMK A01 T00481063  RH  044%=      5-min Rain = 0
KRO1 130732Z 12005KT 05/M06 A3025 RMK A01 T00481063  RH  044%=      5-min Rain = 0
KRO1 130733Z 12005KT 05/M06 A3025 RMK A01 T00491062  RH  044%=      5-min Rain = 0
KRO1 130734Z 12005KT 05/M06 A3025 RMK A01 T00491062  RH  044%=      5-min Rain = 0
KRO1 130735Z 12005KT 05/M06 A3025 RMK A01 T00491063  RH  044%=      5-min Rain = 0
KRO1 130736Z 12005KT 05/M06 A3025 RMK A01 T00491063  RH  044%=      5-min Rain = 0
KRO1 130737Z 12006KT 05/M06 A3025 RMK A01 T00491063  RH  044%=      5-min Rain = 0
KRO1 130738Z 12006KT 05/M06 A3025 RMK A01 T00491063  RH  044%=      5-min Rain = 0
KRO1 130739Z 12006KT 05/M06 A3025 RMK A01 T00491063  RH  044%=      5-min Rain = 0
KRO1 130740Z 12007KT 05/M06 A3025 RMK A01 T00501062  RH  044%=      5-min Rain = 0
KRO1 130741Z 13006KT 05/M06 A3025 RMK A01 T00501063  RH  044%=      5-min Rain = 0
KRO1 130742Z 13007KT 05/M06 A3025 RMK A01 T00491063  RH  044%=      5-min Rain = 0
KRO1 130743Z 12007KT 05/M06 A3025 RMK A01 T00481064  RH  044%=      5-min Rain = 0
KRO1 130744Z 13007KT 05/M06 A3025 RMK A01 T00471064  RH  044%=      5-min Rain = 0
KRO1 130745Z 13007KT 05/M07 A3025 RMK A01 T00461065  RH  044%=      5-min Rain = 0
KRO1 130746Z 13007KT 05/M07 A3025 RMK A01 T00451066  RH  044%=      5-min Rain = 0
KRO1 130747Z 12007KT 05/M07 A3025 RMK A01 T00451066  RH  045%=      5-min Rain = 0
KRO1 130748Z 13007KT 05/M07 A3025 RMK A01 T00451065  RH  045%=      5-min Rain = 0
KRO1 130749Z 13007KT 05/M06 A3025 RMK A01 T00451064  RH  045%=      5-min Rain = 0
KRO1 130750Z 13007KT 05/M06 A3025 RMK A01 T00471062  RH  045%=      5-min Rain = 0
KRO1 130751Z 13007KT 05/M06 A3025 RMK A01 T00481063  RH  045%=      5-min Rain = 0
KRO1 130752Z 13008KT 05/M06 A3025 RMK A01 T00471063  RH  045%=      5-min Rain = 0
KRO1 130753Z 13007KT 05/M06 A3025 RMK A01 T00481063  RH  045%=      5-min Rain = 0
KRO1 130754Z 13007KT 05/M06 A3025 RMK A01 T00471062  RH  045%=      5-min Rain = 0
KRO1 130755Z 13007KT 05/M06 A3024 RMK A01 T00481062  RH  045%=      5-min Rain = 0
KRO1 130756Z 13007KT 05/M06 A3024 RMK A01 T00481062  RH  045%=      5-min Rain = 0
KRO1 130757Z 13007KT 05/M06 A3024 RMK A01 T00471063  RH  045%=      5-min Rain = 0
KRO1 130758Z 13008KT 05/M06 A3024 RMK A01 T00471063  RH  045%=      5-min Rain = 0
KRO1 130759Z 13008KT 05/M06 A3024 RMK A01 T00461062  RH  045%=      5-min Rain = 0
KRO1 130800Z 13007KT 05/M06 A3024 RMK A01 T00461061  RH  046%=      5-min Rain = 0
KRO1 130801Z 13008KT 05/M06 A3024 RMK A01 T00471060  RH  046%=      5-min Rain = 0
KRO1 130802Z 13007KT 05/M06 A3024 RMK A01 T00481060  RH  046%=      5-min Rain = 0
KRO1 130803Z 13007KT 05/M06 A3024 RMK A01 T00481059  RH  046%=      5-min Rain = 0
KRO1 130804Z 13007KT 05/M06 A3024 RMK A01 T00481059  RH  046%=      5-min Rain = 0
KRO1 130805Z 13007KT 05/M06 A3024 RMK A01 T00481059  RH  046%=      5-min Rain = 0
KRO1 130806Z 13007KT 05/M06 A3024 RMK A01 T00471060  RH  046%=      5-min Rain = 0
KRO1 130807Z 13007KT 05/M06 A3024 RMK A01 T00461061  RH  046%=      5-min Rain = 0
KRO1 130808Z 13007KT 05/M06 A3024 RMK A01 T00461061  RH  046%=      5-min Rain = 0
KRO1 130809Z 13007KT 05/M06 A3024 RMK A01 T00451063  RH  045%=      5-min Rain = 0
KRO1 130810Z 14007KT 04/M07 A3024 RMK A01 T00441066  RH  045%=      5-min Rain = 0
KRO1 130811Z 14007KT 04/M07 A3024 RMK A01 T00421069  RH  044%=      5-min Rain = 0
KRO1 130812Z 14007KT 04/M07 A3024 RMK A01 T00411071  RH  044%=      5-min Rain = 0
KRO1 130813Z 14007KT 04/M07 A3024 RMK A01 T00391071  RH  044%=      5-min Rain = 0
KRO1 130814Z 14006KT 04/M07 A3024 RMK A01 T00391071  RH  045%=      5-min Rain = 0
KRO1 130815Z 14006KT 04/M07 A3024 RMK A01 T00371073  RH  044%=      5-min Rain = 0
KRO1 130816Z 14006KT 04/M07 A3024 RMK A01 T00361070  RH  046%=      5-min Rain = 0
KRO1 130817Z 14006KT 04/M07 A3024 RMK A01 T00361068  RH  047%=      5-min Rain = 0
KRO1 130818Z 14006KT 04/M07 A3024 RMK A01 T00371065  RH  047%=      5-min Rain = 0
KRO1 130819Z 15006KT 04/M06 A3024 RMK A01 T00371064  RH  047%=      5-min Rain = 0
KRO1 130820Z 15006KT 04/M06 A3024 RMK A01 T00381063  RH  048%=      5-min Rain = 0
KRO1 130821Z 15006KT 04/M06 A3024 RMK A01 T00381063  RH  048%=      5-min Rain = 0
KRO1 130822Z 15006KT 04/M06 A3024 RMK A01 T00391062  RH  048%=      5-min Rain = 0
KRO1 130823Z 14006KT 04/M06 A3024 RMK A01 T00391061  RH  048%=      5-min Rain = 0
KRO1 130824Z 14006KT 04/M06 A3024 RMK A01 T00391060  RH  048%=      5-min Rain = 0
KRO1 130825Z 14006KT 04/M06 A3024 RMK A01 T00401059  RH  048%=      5-min Rain = 0
KRO1 130826Z 14006KT 04/M06 A3024 RMK A01 T00401060  RH  048%=      5-min Rain = 0
KRO1 130827Z 15006KT 04/M06 A3024 RMK A01 T00411060  RH  048%=      5-min Rain = 0
KRO1 130828Z 15006KT 04/M06 A3024 RMK A01 T00411061  RH  048%=      5-min Rain = 0
KRO1 130829Z 15006KT 04/M06 A3024 RMK A01 T00411061  RH  048%=      5-min Rain = 0
KRO1 130830Z 15006KT 04/M06 A3024 RMK A01 T00411061  RH  048%=      5-min Rain = 0
KRO1 130831Z 15006KT 04/M06 A3023 RMK A01 T00411061  RH  048%=      5-min Rain = 0
KRO1 130832Z 14006KT 04/M06 A3023 RMK A01 T00411061  RH  047%=      5-min Rain = 0
KRO1 130833Z 15006KT 04/M06 A3023 RMK A01 T00411061  RH  047%=      5-min Rain = 0
KRO1 130834Z 15006KT 04/M06 A3023 RMK A01 T00401061  RH  048%=      5-min Rain = 0
KRO1 130835Z 15006KT 04/M06 A3023 RMK A01 T00401060  RH  048%=      5-min Rain = 0
KRO1 130836Z 15006KT 04/M06 A3023 RMK A01 T00401059  RH  049%=      5-min Rain = 0
KRO1 130837Z 15006KT 04/M06 A3023 RMK A01 T00411059  RH  048%=      5-min Rain = 0
KRO1 130838Z 15007KT 04/M06 A3023 RMK A01 T00411060  RH  048%=      5-min Rain = 0
KRO1 130839Z 15008KT 04/M06 A3023 RMK A01 T00401062  RH  047%=      5-min Rain = 0
KRO1 130840Z 15009KT 04/M07 A3023 RMK A01 T00371066  RH  047%=      5-min Rain = 0
KRO1 130841Z 15010KT 04/M07 A3023 RMK A01 T00351068  RH  047%=      5-min Rain = 0
KRO1 130842Z 15010KT 03/M07 A3022 RMK A01 T00331070  RH  047%=      5-min Rain = 0
KRO1 130843Z 15010KT 03/M07 A3022 RMK A01 T00321071  RH  047%=      5-min Rain = 0
KRO1 130844Z 15010KT 03/M07 A3022 RMK A01 T00311070  RH  047%=      5-min Rain = 0
KRO1 130845Z 15010KT 03/M07 A3022 RMK A01 T00311068  RH  048%=      5-min Rain = 0
KRO1 130846Z 15009KT 03/M07 A3023 RMK A01 T00321065  RH  049%=      5-min Rain = 0
KRO1 130847Z 15009KT 03/M06 A3023 RMK A01 T00331063  RH  049%=      5-min Rain = 0
KRO1 130848Z 16008KT 03/M06 A3023 RMK A01 T00341062  RH  050%=      5-min Rain = 0
KRO1 130849Z 16008KT 04/M06 A3023 RMK A01 T00351061  RH  049%=      5-min Rain = 0
KRO1 130850Z 16007KT 04/M06 A3023 RMK A01 T00351061  RH  049%=      5-min Rain = 0
KRO1 130851Z 15007KT 04/M06 A3023 RMK A01 T00361060  RH  049%=      5-min Rain = 0
KRO1 130852Z 15006KT 04/M06 A3023 RMK A01 T00371059  RH  050%=      5-min Rain = 0
KRO1 130853Z 15005KT 04/M06 A3023 RMK A01 T00371059  RH  049%=      5-min Rain = 0
KRO1 130854Z 15005KT 04/M06 A3023 RMK A01 T00371058  RH  050%=      5-min Rain = 0
KRO1 130855Z 15004KT 04/M06 A3023 RMK A01 T00381057  RH  050%=      5-min Rain = 0
KRO1 130856Z 15004KT 04/M06 A3023 RMK A01 T00391057  RH  050%=      5-min Rain = 0
KRO1 130857Z 14004KT 04/M06 A3023 RMK A01 T00401056  RH  050%=      5-min Rain = 0
KRO1 130858Z 14004KT 04/M06 A3023 RMK A01 T00401056  RH  049%=      5-min Rain = 0
KRO1 130859Z 14004KT 04/M06 A3023 RMK A01 T00411055  RH  049%=      5-min Rain = 0
KRO1 130900Z 14003KT 04/M06 A3023 RMK A01 T00421055  RH  049%=      5-min Rain = 0
KRO1 130901Z 14003KT 04/M06 A3023 RMK A01 T00431055  RH  049%=      5-min Rain = 0
KRO1 130902Z 14003KT 04/M05 A3023 RMK A01 T00441054  RH  049%=      5-min Rain = 0
KRO1 130903Z 14003KT 05/M05 A3023 RMK A01 T00451054  RH  049%=      5-min Rain = 0
KRO1 130904Z 14003KT 05/M05 A3023 RMK A01 T00451054  RH  049%=      5-min Rain = 0
KRO1 130905Z 14002KT 05/M05 A3023 RMK A01 T00451054  RH  049%=      5-min Rain = 0
KRO1 130906Z 15003KT 05/M05 A3023 RMK A01 T00451053  RH  049%=      5-min Rain = 0
KRO1 130907Z 15003KT 05/M05 A3023 RMK A01 T00461052  RH  049%=      5-min Rain = 0
KRO1 130908Z 14003KT 05/M05 A3023 RMK A01 T00461053  RH  049%=      5-min Rain = 0
KRO1 130909Z 15002KT 05/M05 A3023 RMK A01 T00461053  RH  049%=      5-min Rain = 0
KRO1 130910Z 14003KT 05/M05 A3023 RMK A01 T00461053  RH  049%=      5-min Rain = 0
KRO1 130911Z 15003KT 05/M05 A3023 RMK A01 T00461053  RH  049%=      5-min Rain = 0
KRO1 130912Z 15003KT 05/M05 A3023 RMK A01 T00461053  RH  049%=      5-min Rain = 0
KRO1 130913Z 15003KT 05/M05 A3023 RMK A01 T00451052  RH  049%=      5-min Rain = 0
KRO1 130914Z 16002KT 05/M05 A3023 RMK A01 T00451053  RH  049%=      5-min Rain = 0
KRO1 130915Z 16002KT 04/M05 A3023 RMK A01 T00441053  RH  049%=      5-min Rain = 0
KRO1 130916Z 16003KT 04/M06 A3023 RMK A01 T00441055  RH  049%=      5-min Rain = 0
KRO1 130917Z 16003KT 04/M06 A3023 RMK A01 T00421055  RH  049%=      5-min Rain = 0
KRO1 130918Z 16003KT 04/M05 A3023 RMK A01 T00411054  RH  050%=      5-min Rain = 0
KRO1 130919Z 17004KT 04/M05 A3023 RMK A01 T00411054  RH  050%=      5-min Rain = 0
KRO1 130920Z 17004KT 04/M05 A3023 RMK A01 T00401054  RH  050%=      5-min Rain = 0
KRO1 130921Z 17004KT 04/M05 A3023 RMK A01 T00401054  RH  050%=      5-min Rain = 0
KRO1 130922Z 17004KT 04/M06 A3023 RMK A01 T00391055  RH  050%=      5-min Rain = 0
KRO1 130923Z 17004KT 04/M06 A3023 RMK A01 T00391056  RH  050%=      5-min Rain = 0
KRO1 130924Z 17005KT 04/M06 A3023 RMK A01 T00381059  RH  049%=      5-min Rain = 0
KRO1 130925Z 17005KT 04/M06 A3023 RMK A01 T00361060  RH  049%=      5-min Rain = 0
KRO1 130926Z 17005KT 04/M06 A3023 RMK A01 T00351061  RH  049%=      5-min Rain = 0
KRO1 130927Z 16006KT 04/M06 A3023 RMK A01 T00351061  RH  050%=      5-min Rain = 0
KRO1 130928Z 16006KT 04/M06 A3023 RMK A01 T00351060  RH  050%=      5-min Rain = 0
KRO1 130929Z 16006KT 04/M06 A3023 RMK A01 T00351060  RH  050%=      5-min Rain = 0
KRO1 130930Z 16006KT 04/M06 A3023 RMK A01 T00351061  RH  049%=      5-min Rain = 0
KRO1 130931Z 16006KT 04/M06 A3023 RMK A01 T00351063  RH  049%=      5-min Rain = 0
KRO1 130932Z 16006KT 03/M06 A3023 RMK A01 T00341064  RH  049%=      5-min Rain = 0
KRO1 130933Z 16006KT 03/M07 A3023 RMK A01 T00331065  RH  049%=      5-min Rain = 0
KRO1 130934Z 16006KT 03/M07 A3023 RMK A01 T00331065  RH  049%=      5-min Rain = 0
KRO1 130935Z 16006KT 03/M07 A3023 RMK A01 T00321066  RH  049%=      5-min Rain = 0
KRO1 130936Z 16006KT 03/M07 A3023 RMK A01 T00311066  RH  049%=      5-min Rain = 0
KRO1 130937Z 16005KT 03/M06 A3023 RMK A01 T00311064  RH  049%=      5-min Rain = 0
KRO1 130938Z 16005KT 03/M06 A3023 RMK A01 T00311063  RH  050%=      5-min Rain = 0
KRO1 130939Z 16006KT 03/M06 A3023 RMK A01 T00321063  RH  050%=      5-min Rain = 0
KRO1 130940Z 16005KT 03/M06 A3023 RMK A01 T00321064  RH  049%=      5-min Rain = 0
KRO1 130941Z 16005KT 03/M06 A3023 RMK A01 T00321063  RH  049%=      5-min Rain = 0
KRO1 130942Z 16005KT 03/M06 A3023 RMK A01 T00321063  RH  050%=      5-min Rain = 0
KRO1 130943Z 16005KT 03/M06 A3023 RMK A01 T00321064  RH  049%=      5-min Rain = 0
KRO1 130944Z 16005KT 03/M06 A3024 RMK A01 T00331063  RH  049%=      5-min Rain = 0
KRO1 130945Z 16005KT 03/M06 A3024 RMK A01 T00321063  RH  050%=      5-min Rain = 0
KRO1 130946Z 16005KT 03/M06 A3024 RMK A01 T00321062  RH  050%=      5-min Rain = 0
KRO1 130947Z 16005KT 03/M06 A3024 RMK A01 T00331060  RH  050%=      5-min Rain = 0
KRO1 130948Z 16005KT 03/M06 A3024 RMK A01 T00341060  RH  050%=      5-min Rain = 0
KRO1 130949Z 16006KT 03/M06 A3024 RMK A01 T00341060  RH  050%=      5-min Rain = 0
KRO1 130950Z 16006KT 03/M06 A3024 RMK A01 T00341061  RH  050%=      5-min Rain = 0
KRO1 130951Z 16006KT 03/M06 A3024 RMK A01 T00341062  RH  049%=      5-min Rain = 0
KRO1 130952Z 16007KT 03/M06 A3024 RMK A01 T00341063  RH  049%=      5-min Rain = 0
KRO1 130953Z 16007KT 03/M06 A3024 RMK A01 T00331062  RH  049%=      5-min Rain = 0
KRO1 130954Z 16007KT 03/M06 A3024 RMK A01 T00331061  RH  050%=      5-min Rain = 0
KRO1 130955Z 15007KT 03/M06 A3024 RMK A01 T00341060  RH  050%=      5-min Rain = 0
KRO1 130956Z 16007KT 04/M06 A3024 RMK A01 T00351060  RH  050%=      5-min Rain = 0
KRO1 130957Z 16007KT 04/M06 A3024 RMK A01 T00361060  RH  050%=      5-min Rain = 0
KRO1 130958Z 16007KT 04/M06 A3024 RMK A01 T00371060  RH  049%=      5-min Rain = 0
KRO1 130959Z 16007KT 04/M06 A3024 RMK A01 T00371061  RH  049%=      5-min Rain = 0
KRO1 131000Z 15007KT 04/M06 A3024 RMK A01 T00371060  RH  049%=      5-min Rain = 0
KRO1 131001Z 15007KT 04/M06 A3024 RMK A01 T00371060  RH  049%=      5-min Rain = 0
KRO1 131002Z 15007KT 04/M06 A3024 RMK A01 T00371060  RH  049%=      5-min Rain = 0
KRO1 131003Z 15008KT 04/M06 A3024 RMK A01 T00361061  RH  049%=      5-min Rain = 0
KRO1 131004Z 15008KT 04/M06 A3024 RMK A01 T00361061  RH  049%=      5-min Rain = 0
KRO1 131005Z 15008KT 04/M06 A3024 RMK A01 T00361061  RH  049%=      5-min Rain = 0
KRO1 131006Z 15008KT 04/M06 A3024 RMK A01 T00371063  RH  048%=      5-min Rain = 0
KRO1 131007Z 15007KT 04/M06 A3024 RMK A01 T00361063  RH  048%=      5-min Rain = 0
KRO1 131008Z 15007KT 04/M06 A3024 RMK A01 T00361064  RH  048%=      5-min Rain = 0
KRO1 131009Z 15007KT 04/M06 A3024 RMK A01 T00351063  RH  048%=      5-min Rain = 0
KRO1 131010Z 15007KT 04/M06 A3024 RMK A01 T00351064  RH  049%=      5-min Rain = 0
KRO1 131011Z 15007KT 03/M06 A3024 RMK A01 T00341064  RH  049%=      5-min Rain = 0
KRO1 131012Z 15007KT 03/M07 A3024 RMK A01 T00331065  RH  049%=      5-min Rain = 0
KRO1 131013Z 15007KT 03/M07 A3024 RMK A01 T00321065  RH  049%=      5-min Rain = 0
KRO1 131014Z 15007KT 03/M07 A3024 RMK A01 T00321065  RH  049%=      5-min Rain = 0
KRO1 131015Z 15006KT 03/M06 A3024 RMK A01 T00321064  RH  050%=      5-min Rain = 0
KRO1 131016Z 16006KT 03/M07 A3024 RMK A01 T00321065  RH  049%=      5-min Rain = 0
KRO1 131017Z 16006KT 03/M07 A3024 RMK A01 T00311068  RH  048%=      5-min Rain = 0
KRO1 131018Z 16006KT 03/M07 A3024 RMK A01 T00291068  RH  049%=      5-min Rain = 0
KRO1 131019Z 16006KT 03/M07 A3024 RMK A01 T00281068  RH  049%=      5-min Rain = 0
KRO1 131020Z 16006KT 03/M07 A3024 RMK A01 T00281067  RH  050%=      5-min Rain = 0
KRO1 131021Z 16006KT 03/M07 A3024 RMK A01 T00281067  RH  050%=      5-min Rain = 0
KRO1 131022Z 16006KT 03/M07 A3024 RMK A01 T00281065  RH  050%=      5-min Rain = 0
KRO1 131023Z 16006KT 03/M07 A3024 RMK A01 T00281065  RH  050%=      5-min Rain = 0
KRO1 131024Z 16006KT 03/M06 A3024 RMK A01 T00281064  RH  051%=      5-min Rain = 0
KRO1 131025Z 16006KT 03/M06 A3024 RMK A01 T00291063  RH  051%=      5-min Rain = 0
KRO1 131026Z 16006KT 03/M06 A3024 RMK A01 T00301062  RH  051%=      5-min Rain = 0
KRO1 131027Z 16006KT 03/M06 A3024 RMK A01 T00311062  RH  051%=      5-min Rain = 0
KRO1 131028Z 16006KT 03/M06 A3024 RMK A01 T00311062  RH  050%=      5-min Rain = 0
KRO1 131029Z 16005KT 03/M06 A3024 RMK A01 T00321063  RH  050%=      5-min Rain = 0
KRO1 131030Z 16005KT 03/M06 A3024 RMK A01 T00321063  RH  050%=      5-min Rain = 0
KRO1 131031Z 16005KT 03/M06 A3024 RMK A01 T00311063  RH  050%=      5-min Rain = 0
KRO1 131032Z 16005KT 03/M06 A3024 RMK A01 T00311062  RH  050%=      5-min Rain = 0
KRO1 131033Z 16005KT 03/M06 A3024 RMK A01 T00311062  RH  050%=      5-min Rain = 0
KRO1 131034Z 16004KT 03/M06 A3024 RMK A01 T00311062  RH  050%=      5-min Rain = 0
KRO1 131035Z 16004KT 03/M06 A3024 RMK A01 T00311061  RH  051%=      5-min Rain = 0
KRO1 131036Z 15004KT 03/M06 A3024 RMK A01 T00321060  RH  051%=      5-min Rain = 0
KRO1 131037Z 15004KT 03/M06 A3025 RMK A01 T00331059  RH  051%=      5-min Rain = 0
KRO1 131038Z 15004KT 04/M06 A3025 RMK A01 T00351058  RH  050%=      5-min Rain = 0
KRO1 131039Z 15003KT 04/M06 A3025 RMK A01 T00371057  RH  050%=      5-min Rain = 0
KRO1 131040Z 14004KT 04/M06 A3025 RMK A01 T00381058  RH  049%=      5-min Rain = 0
KRO1 131041Z 14005KT 04/M06 A3025 RMK A01 T00381059  RH  049%=      5-min Rain = 0
KRO1 131042Z 14004KT 04/M06 A3025 RMK A01 T00391058  RH  049%=      5-min Rain = 0
KRO1 131043Z 14004KT 04/M06 A3025 RMK A01 T00401057  RH  049%=      5-min Rain = 0
KRO1 131044Z 15004KT 04/M06 A3025 RMK A01 T00401057  RH  049%=      5-min Rain = 0
KRO1 131045Z 14004KT 04/M06 A3025 RMK A01 T00411057  RH  049%=      5-min Rain = 0
KRO1 131046Z 14004KT 04/M06 A3025 RMK A01 T00411058  RH  048%=      5-min Rain = 0
KRO1 131047Z 14004KT 04/M06 A3025 RMK A01 T00411059  RH  048%=      5-min Rain = 0
KRO1 131048Z 14004KT 04/M06 A3025 RMK A01 T00401059  RH  049%=      5-min Rain = 0
KRO1 131049Z 14004KT 04/M06 A3025 RMK A01 T00391058  RH  049%=      5-min Rain = 0
KRO1 131050Z 14004KT 04/M06 A3025 RMK A01 T00391058  RH  049%=      5-min Rain = 0
KRO1 131051Z 13004KT 04/M06 A3025 RMK A01 T00391058  RH  049%=      5-min Rain = 0
KRO1 131052Z 13004KT 04/M06 A3025 RMK A01 T00391058  RH  049%=      5-min Rain = 0
KRO1 131053Z 13004KT 04/M06 A3025 RMK A01 T00391058  RH  049%=      5-min Rain = 0
KRO1 131054Z 12003KT 04/M06 A3025 RMK A01 T00401057  RH  049%=      5-min Rain = 0
KRO1 131055Z 12004KT 04/M06 A3025 RMK A01 T00401059  RH  049%=      5-min Rain = 0
KRO1 131056Z 12004KT 04/M06 A3025 RMK A01 T00401058  RH  049%=      5-min Rain = 0
KRO1 131057Z 13004KT 04/M06 A3025 RMK A01 T00401058  RH  049%=      5-min Rain = 0
KRO1 131058Z 13004KT 04/M06 A3025 RMK A01 T00411057  RH  049%=      5-min Rain = 0
KRO1 131059Z 13004KT 04/M06 A3025 RMK A01 T00401057  RH  049%=      5-min Rain = 0
KRO1 131100Z 12004KT 04/M06 A3025 RMK A01 T00411056  RH  049%=      5-min Rain = 0
KRO1 131101Z 12004KT 04/M06 A3025 RMK A01 T00421055  RH  049%=      5-min Rain = 0
KRO1 131102Z 12003KT 04/M06 A3025 RMK A01 T00421056  RH  049%=      5-min Rain = 0
KRO1 131103Z 12004KT 04/M06 A3025 RMK A01 T00421057  RH  049%=      5-min Rain = 0
KRO1 131104Z 12004KT 04/M06 A3025 RMK A01 T00431055  RH  049%=      5-min Rain = 0
KRO1 131105Z 12004KT 04/M06 A3025 RMK A01 T00431055  RH  049%=      5-min Rain = 0
KRO1 131106Z 12004KT 04/M06 A3025 RMK A01 T00441055  RH  049%=      5-min Rain = 0
KRO1 131107Z 12005KT 04/M06 A3025 RMK A01 T00441055  RH  049%=      5-min Rain = 0
KRO1 131108Z 12004KT 05/M06 A3025 RMK A01 T00451055  RH  048%=      5-min Rain = 0
KRO1 131109Z 12004KT 04/M06 A3025 RMK A01 T00441055  RH  048%=      5-min Rain = 0
KRO1 131110Z 11004KT 04/M06 A3025 RMK A01 T00441056  RH  048%=      5-min Rain = 0
KRO1 131111Z 10003KT 04/M06 A3025 RMK A01 T00441059  RH  047%=      5-min Rain = 0
KRO1 131112Z 10003KT 04/M06 A3025 RMK A01 T00411064  RH  046%=      5-min Rain = 0
KRO1 131113Z 09003KT 04/M06 A3025 RMK A01 T00381064  RH  047%=      5-min Rain = 0
KRO1 131114Z 09003KT 04/M06 A3025 RMK A01 T00361062  RH  049%=      5-min Rain = 0
KRO1 131115Z 09003KT 04/M06 A3025 RMK A01 T00361061  RH  049%=      5-min Rain = 0
KRO1 131116Z 09003KT 04/M06 A3025 RMK A01 T00361060  RH  049%=      5-min Rain = 0
KRO1 131117Z 10003KT 04/M06 A3025 RMK A01 T00371060  RH  049%=      5-min Rain = 0
KRO1 131118Z 09003KT 04/M06 A3025 RMK A01 T00371059  RH  049%=      5-min Rain = 0
KRO1 131119Z 09003KT 04/M06 A3025 RMK A01 T00381059  RH  049%=      5-min Rain = 0
KRO1 131120Z 09003KT 04/M06 A3025 RMK A01 T00391058  RH  049%=      5-min Rain = 0
KRO1 131121Z 10003KT 04/M06 A3026 RMK A01 T00401057  RH  049%=      5-min Rain = 0
KRO1 131122Z 10003KT 04/M06 A3026 RMK A01 T00401057  RH  049%=      5-min Rain = 0
KRO1 131123Z 10004KT 04/M06 A3026 RMK A01 T00411056  RH  049%=      5-min Rain = 0
KRO1 131124Z 10004KT 04/M06 A3026 RMK A01 T00421057  RH  049%=      5-min Rain = 0
KRO1 131125Z 10004KT 04/M06 A3026 RMK A01 T00421057  RH  049%=      5-min Rain = 0
KRO1 131126Z 10003KT 04/M06 A3026 RMK A01 T00421057  RH  049%=      5-min Rain = 0
KRO1 131127Z 10003KT 04/M06 A3026 RMK A01 T00421055  RH  049%=      5-min Rain = 0
KRO1 131128Z 10003KT 04/M05 A3026 RMK A01 T00431054  RH  049%=      5-min Rain = 0
KRO1 131129Z 10003KT 04/M05 A3026 RMK A01 T00441053  RH  049%=      5-min Rain = 0
KRO1 131130Z 10003KT 04/M05 A3026 RMK A01 T00441054  RH  049%=      5-min Rain = 0
KRO1 131131Z 11003KT 04/M05 A3026 RMK A01 T00441054  RH  049%=      5-min Rain = 0
KRO1 131132Z 11003KT 04/M05 A3026 RMK A01 T00441054  RH  049%=      5-min Rain = 0
KRO1 131133Z 11003KT 04/M05 A3026 RMK A01 T00441054  RH  049%=      5-min Rain = 0
KRO1 131134Z 12003KT 04/M05 A3026 RMK A01 T00441053  RH  049%=      5-min Rain = 0
KRO1 131135Z 12003KT 04/M05 A3026 RMK A01 T00441053  RH  049%=      5-min Rain = 0
KRO1 131136Z 12003KT 04/M06 A3026 RMK A01 T00431056  RH  048%=      5-min Rain = 0
KRO1 131137Z 13003KT 04/M06 A3026 RMK A01 T00401062  RH  047%=      5-min Rain = 0
KRO1 131138Z 13003KT 04/M07 A3027 RMK A01 T00361065  RH  048%=      5-min Rain = 0
KRO1 131139Z 12003KT 03/M07 A3027 RMK A01 T00341066  RH  048%=      5-min Rain = 0
KRO1 131140Z 12003KT 03/M07 A3027 RMK A01 T00321065  RH  049%=      5-min Rain = 0
KRO1 131141Z 11004KT 03/M06 A3027 RMK A01 T00311062  RH  050%=      5-min Rain = 0
KRO1 131142Z 11004KT 03/M06 A3027 RMK A01 T00311059  RH  051%=      5-min Rain = 0
KRO1 131143Z 10003KT 03/M06 A3027 RMK A01 T00321058  RH  052%=      5-min Rain = 0
KRO1 131144Z 09004KT 04/M05 A3027 RMK A01 T00351054  RH  052%=      5-min Rain = 0
KRO1 131145Z 08003KT 04/M06 A3027 RMK A01 T00371058  RH  050%=      5-min Rain = 0
KRO1 131146Z 08004KT 03/M07 A3027 RMK A01 T00341070  RH  046%=      5-min Rain = 0
KRO1 131147Z 07004KT 03/M07 A3027 RMK A01 T00301067  RH  049%=      5-min Rain = 0
KRO1 131148Z 06004KT 03/M07 A3027 RMK A01 T00291065  RH  050%=      5-min Rain = 0
KRO1 131149Z 05004KT 03/M06 A3027 RMK A01 T00301061  RH  052%=      5-min Rain = 0
KRO1 131150Z 04005KT 03/M06 A3028 RMK A01 T00311061  RH  051%=      5-min Rain = 0
KRO1 131151Z 04006KT 03/M06 A3028 RMK A01 T00301064  RH  050%=      5-min Rain = 0
KRO1 131152Z 04005KT 03/M07 A3028 RMK A01 T00281065  RH  050%=      5-min Rain = 0
KRO1 131153Z 05006KT 03/M06 A3028 RMK A01 T00271063  RH  051%=      5-min Rain = 0
KRO1 131154Z 05006KT 03/M06 A3028 RMK A01 T00281060  RH  052%=      5-min Rain = 0
KRO1 131155Z 05006KT 03/M06 A3028 RMK A01 T00301061  RH  051%=      5-min Rain = 0
KRO1 131156Z 04007KT 03/M06 A3028 RMK A01 T00311063  RH  050%=      5-min Rain = 0
KRO1 131157Z 03008KT 03/M06 A3028 RMK A01 T00301062  RH  051%=      5-min Rain = 0
KRO1 131158Z 04008KT 03/M06 A3028 RMK A01 T00291062  RH  051%=      5-min Rain = 0
KRO1 131159Z 04008KT 03/M06 A3028 RMK A01 T00271062  RH  052%=      5-min Rain = 0
KRO1 131200Z 03009KT 03/M06 A3028 RMK A01 T00271062  RH  052%=      5-min Rain = 0
KRO1 131201Z 03009KT 03/M06 A3028 RMK A01 T00261062  RH  052%=      5-min Rain = 0
KRO1 131202Z 03009KT 03/M06 A3028 RMK A01 T00251062  RH  053%=      5-min Rain = 0
KRO1 131203Z 03009KT 03/M06 A3028 RMK A01 T00251061  RH  053%=      5-min Rain = 0
KRO1 131204Z 04009KT 03/M06 A3028 RMK A01 T00251061  RH  053%=      5-min Rain = 0
KRO1 131205Z 03008KT 03/M06 A3028 RMK A01 T00251061  RH  053%=      5-min Rain = 0
KRO1 131206Z 04009KT 02/M06 A3028 RMK A01 T00241062  RH  053%=      5-min Rain = 0
KRO1 131207Z 04009KT 02/M06 A3028 RMK A01 T00231062  RH  053%=      5-min Rain = 0
KRO1 131208Z 04009KT 02/M06 A3028 RMK A01 T00221062  RH  054%=      5-min Rain = 0
KRO1 131209Z 04009KT 02/M06 A3028 RMK A01 T00221062  RH  054%=      5-min Rain = 0
KRO1 131210Z 03009KT 02/M06 A3028 RMK A01 T00221061  RH  054%=      5-min Rain = 0
KRO1 131211Z 03009KT 02/M06 A3028 RMK A01 T00221061  RH  054%=      5-min Rain = 0
KRO1 131212Z 03009KT 02/M06 A3028 RMK A01 T00221062  RH  054%=      5-min Rain = 0
KRO1 131213Z 03009KT 02/M06 A3028 RMK A01 T00211062  RH  054%=      5-min Rain = 0
KRO1 131214Z 03009KT 02/M06 A3028 RMK A01 T00211061  RH  054%=      5-min Rain = 0
KRO1 131215Z 03009KT 02/M06 A3028 RMK A01 T00211061  RH  054%=      5-min Rain = 0
KRO1 131216Z 04010KT 02/M06 A3028 RMK A01 T00211060  RH  055%=      5-min Rain = 0
KRO1 131217Z 04009KT 02/M06 A3028 RMK A01 T00221060  RH  055%=      5-min Rain = 0
KRO1 131218Z 03010KT 02/M06 A3028 RMK A01 T00221059  RH  055%=      5-min Rain = 0
KRO1 131219Z 03010KT 02/M06 A3028 RMK A01 T00221060  RH  055%=      5-min Rain = 0
KRO1 131220Z 03010KT 02/M06 A3028 RMK A01 T00221059  RH  055%=      5-min Rain = 0
KRO1 131221Z 03010KT 02/M06 A3028 RMK A01 T00211060  RH  055%=      5-min Rain = 0
KRO1 131222Z 03010KT 02/M06 A3028 RMK A01 T00221060  RH  055%=      5-min Rain = 0
KRO1 131223Z 03010KT 02/M06 A3028 RMK A01 T00221060  RH  055%=      5-min Rain = 0
KRO1 131224Z 03010KT 02/M06 A3028 RMK A01 T00211060  RH  055%=      5-min Rain = 0
KRO1 131225Z 03010KT 02/M06 A3028 RMK A01 T00211060  RH  055%=      5-min Rain = 0
KRO1 131226Z 03010KT 02/M06 A3029 RMK A01 T00221060  RH  055%=      5-min Rain = 0
KRO1 131227Z 03010KT 02/M06 A3029 RMK A01 T00221060  RH  055%=      5-min Rain = 0
KRO1 131228Z 03010KT 02/M06 A3029 RMK A01 T00221060  RH  055%=      5-min Rain = 0
KRO1 131229Z 03010KT 02/M06 A3029 RMK A01 T00221060  RH  055%=      5-min Rain = 0
KRO1 131230Z 03010KT 02/M06 A3029 RMK A01 T00221060  RH  055%=      5-min Rain = 0
KRO1 131231Z 03010KT 02/M06 A3029 RMK A01 T00221060  RH  055%=      5-min Rain = 0
KRO1 131232Z 03010KT 02/M06 A3029 RMK A01 T00221060  RH  055%=      5-min Rain = 0
KRO1 131233Z 03010KT 02/M06 A3029 RMK A01 T00221060  RH  055%=      5-min Rain = 0
KRO1 131234Z 03010KT 02/M06 A3029 RMK A01 T00231059  RH  055%=      5-min Rain = 0
KRO1 131235Z 04010KT 02/M06 A3029 RMK A01 T00231058  RH  055%=      5-min Rain = 0
KRO1 131236Z 04010KT 02/M06 A3029 RMK A01 T00231059  RH  055%=      5-min Rain = 0
KRO1 131237Z 04010KT 02/M06 A3029 RMK A01 T00241058  RH  055%=      5-min Rain = 0
KRO1 131238Z 04009KT 02/M06 A3029 RMK A01 T00241057  RH  055%=      5-min Rain = 0
KRO1 131239Z 04008KT 03/M06 A3029 RMK A01 T00251058  RH  055%=      5-min Rain = 0
KRO1 131240Z 05005KT 02/M06 A3029 RMK A01 T00241062  RH  053%=      5-min Rain = 0
KRO1 131241Z 04004KT 02/M07 A3029 RMK A01 T00201067  RH  052%=      5-min Rain = 0
KRO1 131242Z 04004KT 02/M06 A3029 RMK A01 T00181064  RH  054%=      5-min Rain = 0
KRO1 131243Z 03004KT 02/M06 A3029 RMK A01 T00181063  RH  055%=      5-min Rain = 0
KRO1 131244Z 03005KT 02/M06 A303 RMK A01 T00181063  RH  055%=      5-min Rain = 0
KRO1 131245Z 03006KT 02/M06 A303 RMK A01 T00171064  RH  055%=      5-min Rain = 0
KRO1 131246Z 03007KT 02/M06 A303 RMK A01 T00161064  RH  055%=      5-min Rain = 0
KRO1 131247Z 02007KT 02/M06 A303 RMK A01 T00171061  RH  056%=      5-min Rain = 0
KRO1 131248Z 02007KT 02/M06 A303 RMK A01 T00181061  RH  056%=      5-min Rain = 0
KRO1 131249Z 02007KT 02/M06 A303 RMK A01 T00191061  RH  056%=      5-min Rain = 0
KRO1 131250Z 02009KT 02/M06 A303 RMK A01 T00191061  RH  055%=      5-min Rain = 0
KRO1 131251Z 02009KT 02/M06 A303 RMK A01 T00201060  RH  055%=      5-min Rain = 0
KRO1 131252Z 02009KT 02/M06 A303 RMK A01 T00221059  RH  055%=      5-min Rain = 0
KRO1 131253Z 02009KT 02/M06 A303 RMK A01 T00221059  RH  055%=      5-min Rain = 0
KRO1 131254Z 03009KT 02/M06 A303 RMK A01 T00221059  RH  055%=      5-min Rain = 0
KRO1 131255Z 03010KT 02/M06 A303 RMK A01 T00231059  RH  055%=      5-min Rain = 0
KRO1 131256Z 03009KT 02/M06 A303 RMK A01 T00231058  RH  055%=      5-min Rain = 0
KRO1 131257Z 03009KT 02/M06 A303 RMK A01 T00231059  RH  055%=      5-min Rain = 0
KRO1 131258Z 03009KT 02/M06 A303 RMK A01 T00231059  RH  055%=      5-min Rain = 0
KRO1 131259Z 04009KT 02/M06 A303 RMK A01 T00231059  RH  055%=      5-min Rain = 0
KRO1 131300Z 04008KT 02/M06 A303 RMK A01 T00241058  RH  055%=      5-min Rain = 0
KRO1 131301Z 04008KT 02/M06 A303 RMK A01 T00241058  RH  055%=      5-min Rain = 0
KRO1 131302Z 04007KT 02/M06 A303 RMK A01 T00241058  RH  055%=      5-min Rain = 0
KRO1 131303Z 04006KT 02/M06 A303 RMK A01 T00241058  RH  054%=      5-min Rain = 0
KRO1 131304Z 04004KT 02/M06 A303 RMK A01 T00241060  RH  054%=      5-min Rain = 0
KRO1 131305Z 04005KT 02/M06 A303 RMK A01 T00221062  RH  054%=      5-min Rain = 0
KRO1 131306Z 04005KT 02/M06 A303 RMK A01 T00221059  RH  055%=      5-min Rain = 0
KRO1 131307Z 04004KT 02/M06 A303 RMK A01 T00231058  RH  055%=      5-min Rain = 0
KRO1 131308Z 05003KT 02/M06 A303 RMK A01 T00241059  RH  054%=      5-min Rain = 0
KRO1 131309Z 05004KT 02/M06 A303 RMK A01 T00231060  RH  054%=      5-min Rain = 0
KRO1 131310Z 05003KT 02/M06 A303 RMK A01 T00241060  RH  054%=      5-min Rain = 0
KRO1 131311Z 05004KT 02/M06 A3031 RMK A01 T00241060  RH  054%=      5-min Rain = 0
KRO1 131312Z 05004KT 02/M06 A3031 RMK A01 T00231059  RH  054%=      5-min Rain = 0
KRO1 131313Z 05004KT 02/M06 A3031 RMK A01 T00231059  RH  055%=      5-min Rain = 0
KRO1 131314Z 04005KT 02/M06 A3031 RMK A01 T00231058  RH  055%=      5-min Rain = 0
KRO1 131315Z 04005KT 03/M06 A3031 RMK A01 T00251057  RH  055%=      5-min Rain = 0
KRO1 131316Z 04005KT 03/M06 A3031 RMK A01 T00251058  RH  054%=      5-min Rain = 0
KRO1 131317Z 04005KT 03/M06 A3031 RMK A01 T00251058  RH  054%=      5-min Rain = 0
KRO1 131318Z 03006KT 03/M06 A3031 RMK A01 T00251058  RH  054%=      5-min Rain = 0
KRO1 131319Z 03006KT 03/M06 A3031 RMK A01 T00251059  RH  054%=      5-min Rain = 0
KRO1 131320Z 03007KT 03/M06 A3031 RMK A01 T00251059  RH  054%=      5-min Rain = 0
KRO1 131321Z 02008KT 03/M06 A3031 RMK A01 T00251059  RH  054%=      5-min Rain = 0
KRO1 131322Z 02009KT 03/M06 A3031 RMK A01 T00261059  RH  054%=      5-min Rain = 0
KRO1 131323Z 03010KT 03/M06 A3031 RMK A01 T00281055  RH  054%=      5-min Rain = 0
KRO1 131324Z 02010KT 03/M05 A3031 RMK A01 T00311053  RH  054%=      5-min Rain = 0
KRO1 131325Z 02010KT 03/M05 A3032 RMK A01 T00331053  RH  053%=      5-min Rain = 0
KRO1 131326Z 02009KT 03/M05 A3032 RMK A01 T00341053  RH  053%=      5-min Rain = 0
KRO1 131327Z 03009KT 04/M05 A3032 RMK A01 T00351053  RH  053%=      5-min Rain = 0
KRO1 131328Z 03009KT 04/M05 A3032 RMK A01 T00351053  RH  052%=      5-min Rain = 0
KRO1 131329Z 03008KT 04/M05 A3032 RMK A01 T00351053  RH  052%=      5-min Rain = 0
KRO1 131330Z 03008KT 04/M05 A3032 RMK A01 T00351053  RH  052%=      5-min Rain = 0
KRO1 131331Z 03008KT 04/M05 A3032 RMK A01 T00361053  RH  052%=      5-min Rain = 0
KRO1 131332Z 03008KT 04/M05 A3032 RMK A01 T00371052  RH  052%=      5-min Rain = 0
KRO1 131333Z 03008KT 04/M05 A3032 RMK A01 T00391050  RH  052%=      5-min Rain = 0
KRO1 131334Z 03008KT 04/M05 A3032 RMK A01 T00401050  RH  052%=      5-min Rain = 0
KRO1 131335Z 03008KT 04/M05 A3032 RMK A01 T00411049  RH  052%=      5-min Rain = 0
KRO1 131336Z 04007KT 04/M05 A3032 RMK A01 T00431049  RH  051%=      5-min Rain = 0
KRO1 131337Z 04007KT 04/M05 A3032 RMK A01 T00431049  RH  051%=      5-min Rain = 0
KRO1 131338Z 04007KT 04/M05 A3032 RMK A01 T00441048  RH  051%=      5-min Rain = 0
KRO1 131339Z 04007KT 04/M05 A3032 RMK A01 T00441048  RH  051%=      5-min Rain = 0
KRO1 131340Z 04006KT 05/M05 A3032 RMK A01 T00451048  RH  051%=      5-min Rain = 0
KRO1 131341Z 05005KT 05/M05 A3032 RMK A01 T00461047  RH  051%=      5-min Rain = 0
KRO1 131342Z 05005KT 05/M05 A3032 RMK A01 T00471048  RH  050%=      5-min Rain = 0
KRO1 131343Z 06005KT 05/M05 A3032 RMK A01 T00471048  RH  050%=      5-min Rain = 0
KRO1 131344Z 06005KT 05/M05 A3032 RMK A01 T00471049  RH  050%=      5-min Rain = 0
KRO1 131345Z 06004KT 05/M05 A3032 RMK A01 T00471049  RH  050%=      5-min Rain = 0
KRO1 131346Z 06005KT 05/M05 A3032 RMK A01 T00481048  RH  050%=      5-min Rain = 0
KRO1 131347Z 06005KT 05/M05 A3033 RMK A01 T00491047  RH  050%=      5-min Rain = 0
KRO1 131348Z 06005KT 05/M05 A3033 RMK A01 T00491048  RH  050%=      5-min Rain = 0
KRO1 131349Z 05005KT 05/M05 A3033 RMK A01 T00501047  RH  049%=      5-min Rain = 0
KRO1 131350Z 06004KT 05/M05 A3032 RMK A01 T00501047  RH  049%=      5-min Rain = 0
KRO1 131351Z 05005KT 05/M05 A3032 RMK A01 T00511047  RH  049%=      5-min Rain = 0
KRO1 131352Z 06005KT 05/M05 A3032 RMK A01 T00501047  RH  049%=      5-min Rain = 0
KRO1 131353Z 06004KT 05/M05 A3032 RMK A01 T00501047  RH  049%=      5-min Rain = 0
KRO1 131354Z 05004KT 05/M05 A3032 RMK A01 T00511047  RH  049%=      5-min Rain = 0
KRO1 131355Z 05005KT 05/M05 A3033 RMK A01 T00511047  RH  049%=      5-min Rain = 0
KRO1 131356Z 05004KT 05/M05 A3033 RMK A01 T00511046  RH  049%=      5-min Rain = 0
KRO1 131357Z 05005KT 05/M05 A3033 RMK A01 T00521045  RH  049%=      5-min Rain = 0
KRO1 131358Z 05005KT 05/M05 A3033 RMK A01 T00531045  RH  049%=      5-min Rain = 0
KRO1 131359Z 05005KT 05/M05 A3033 RMK A01 T00541045  RH  049%=      5-min Rain = 0
KRO1 131400Z 05005KT 05/M05 A3033 RMK A01 T00541045  RH  049%=      5-min Rain = 0
KRO1 131401Z 05005KT 06/M05 A3033 RMK A01 T00551045  RH  049%=      5-min Rain = 0
KRO1 131402Z 05005KT 06/M04 A3033 RMK A01 T00551044  RH  049%=      5-min Rain = 0
KRO1 131403Z 05005KT 06/M05 A3033 RMK A01 T00551045  RH  049%=      5-min Rain = 0
KRO1 131404Z 06005KT 06/M04 A3033 RMK A01 T00551044  RH  049%=      5-min Rain = 0
KRO1 131405Z 06005KT 06/M04 A3033 RMK A01 T00561043  RH  049%=      5-min Rain = 0
KRO1 131406Z 06004KT 06/M04 A3033 RMK A01 T00571043  RH  048%=      5-min Rain = 0
KRO1 131407Z 06004KT 06/M04 A3032 RMK A01 T00581043  RH  048%=      5-min Rain = 0
KRO1 131408Z 06005KT 06/M04 A3032 RMK A01 T00581043  RH  048%=      5-min Rain = 0
KRO1 131409Z 06004KT 06/M04 A3032 RMK A01 T00591043  RH  048%=      5-min Rain = 0
KRO1 131410Z 06004KT 06/M04 A3032 RMK A01 T00601042  RH  048%=      5-min Rain = 0
KRO1 131411Z 06004KT 06/M04 A3032 RMK A01 T00611042  RH  048%=      5-min Rain = 0
KRO1 131412Z 06004KT 06/M04 A3032 RMK A01 T00611042  RH  048%=      5-min Rain = 0
KRO1 131413Z 06005KT 06/M04 A3032 RMK A01 T00611042  RH  047%=      5-min Rain = 0
KRO1 131414Z 06005KT 06/M04 A3032 RMK A01 T00621042  RH  047%=      5-min Rain = 0
KRO1 131415Z 06004KT 06/M04 A3032 RMK A01 T00631041  RH  047%=      5-min Rain = 0
KRO1 131416Z 06005KT 07/M04 A3032 RMK A01 T00651040  RH  047%=      5-min Rain = 0
KRO1 131417Z 07004KT 07/M04 A3032 RMK A01 T00651041  RH  047%=      5-min Rain = 0
KRO1 131418Z 08004KT 07/M04 A3032 RMK A01 T00651041  RH  046%=      5-min Rain = 0
KRO1 131419Z 08004KT 07/M04 A3032 RMK A01 T00661041  RH  046%=      5-min Rain = 0
KRO1 131420Z 07004KT 07/M04 A3032 RMK A01 T00671041  RH  046%=      5-min Rain = 0
KRO1 131421Z 07004KT 07/M04 A3032 RMK A01 T00671041  RH  046%=      5-min Rain = 0
KRO1 131422Z 07004KT 07/M04 A3032 RMK A01 T00671041  RH  046%=      5-min Rain = 0
KRO1 131423Z 07004KT 07/M04 A3032 RMK A01 T00681041  RH  046%=      5-min Rain = 0
KRO1 131424Z 07003KT 07/M04 A3032 RMK A01 T00691041  RH  046%=      5-min Rain = 0
KRO1 131425Z 07003KT 07/M04 A3032 RMK A01 T00691041  RH  045%=      5-min Rain = 0
KRO1 131426Z 08004KT 07/M04 A3032 RMK A01 T00711041  RH  045%=      5-min Rain = 0
KRO1 131427Z 08003KT 07/M04 A3032 RMK A01 T00711042  RH  044%=      5-min Rain = 0
KRO1 131428Z 07004KT 07/M04 A3032 RMK A01 T00721042  RH  044%=      5-min Rain = 0
KRO1 131429Z 07004KT 07/M04 A3032 RMK A01 T00731042  RH  044%=      5-min Rain = 0
KRO1 131430Z 07004KT 07/M04 A3032 RMK A01 T00741042  RH  043%=      5-min Rain = 0
KRO1 131431Z 08005KT 08/M04 A3032 RMK A01 T00751042  RH  043%=      5-min Rain = 0
KRO1 131432Z 07005KT 08/M04 A3032 RMK A01 T00761043  RH  043%=      5-min Rain = 0
KRO1 131433Z 07005KT 08/M04 A3032 RMK A01 T00771043  RH  042%=      5-min Rain = 0
KRO1 131434Z 08005KT 08/M04 A3032 RMK A01 T00791042  RH  042%=      5-min Rain = 0
KRO1 131435Z 09006KT 08/M04 A3032 RMK A01 T00801042  RH  042%=      5-min Rain = 0
KRO1 131436Z 08005KT 08/M04 A3033 RMK A01 T00801043  RH  042%=      5-min Rain = 0
KRO1 131437Z 07004KT 08/M04 A3033 RMK A01 T00801042  RH  042%=      5-min Rain = 0
KRO1 131438Z 06005KT 08/M04 A3033 RMK A01 T00791041  RH  042%=      5-min Rain = 0
KRO1 131439Z 07005KT 08/M04 A3033 RMK A01 T00811041  RH  042%=      5-min Rain = 0
KRO1 131440Z 06005KT 08/M04 A3033 RMK A01 T00801042  RH  042%=      5-min Rain = 0
KRO1 131441Z 07004KT 08/M04 A3033 RMK A01 T00791041  RH  042%=      5-min Rain = 0
KRO1 131442Z 07006KT 08/M04 A3033 RMK A01 T00801041  RH  042%=      5-min Rain = 0
KRO1 131443Z 08006KT 08/M04 A3033 RMK A01 T00811043  RH  041%=      5-min Rain = 0
KRO1 131444Z 08005KT 08/M04 A3033 RMK A01 T00811043  RH  041%=      5-min Rain = 0
KRO1 131445Z 07006KT 08/M04 A3033 RMK A01 T00821042  RH  041%=      5-min Rain = 0
KRO1 131446Z 06006KT 08/M04 A3033 RMK A01 T00821041  RH  042%=      5-min Rain = 0
KRO1 131447Z 07006KT 08/M04 A3033 RMK A01 T00811042  RH  041%=      5-min Rain = 0
KRO1 131448Z 09006KT 08/M04 A3033 RMK A01 T00811042  RH  042%=      5-min Rain = 0
KRO1 131449Z 08006KT 08/M04 A3033 RMK A01 T00821041  RH  042%=      5-min Rain = 0
KRO1 131450Z 07006KT 08/M04 A3033 RMK A01 T00841040  RH  041%=      5-min Rain = 0
KRO1 131451Z 07006KT 09/M04 A3033 RMK A01 T00851038  RH  042%=      5-min Rain = 0
KRO1 131452Z 08007KT 09/M04 A3033 RMK A01 T00861040  RH  041%=      5-min Rain = 0
KRO1 131453Z 07007KT 09/M04 A3033 RMK A01 T00871039  RH  041%=      5-min Rain = 0
KRO1 131454Z 07008KT 09/M04 A3033 RMK A01 T00871040  RH  040%=      5-min Rain = 0
KRO1 131455Z 08009KT 09/M04 A3033 RMK A01 T00881040  RH  040%=      5-min Rain = 0
KRO1 131456Z 08007KT 09/M04 A3033 RMK A01 T00881041  RH  040%=      5-min Rain = 0
KRO1 131457Z 08006KT 09/M04 A3033 RMK A01 T00891039  RH  040%=      5-min Rain = 0
KRO1 131458Z 08008KT 09/M04 A3033 RMK A01 T00911039  RH  040%=      5-min Rain = 0
KRO1 131459Z 07010KT 09/M04 A3033 RMK A01 T00931042  RH  038%=      5-min Rain = 0
KRO1 131500Z 08008KT 09/M05 A3033 RMK A01 T00941045  RH  037%=      5-min Rain = 0
KRO1 131501Z 09009KT 09/M05 A3033 RMK A01 T00941045  RH  037%=      5-min Rain = 0
KRO1 131502Z 10008KT 09/M05 A3033 RMK A01 T00941045  RH  037%=      5-min Rain = 0
KRO1 131503Z 10008KT 10/M04 A3033 RMK A01 T00951043  RH  037%=      5-min Rain = 0
KRO1 131504Z 10009KT 10/M04 A3033 RMK A01 T00971042  RH  037%=      5-min Rain = 0
KRO1 131505Z 09008KT 10/M04 A3033 RMK A01 T00961044  RH  037%=      5-min Rain = 0
KRO1 131506Z 11008KT 10/M04 A3033 RMK A01 T00961043  RH  037%=      5-min Rain = 0
KRO1 131507Z 09008KT 10/M04 A3033 RMK A01 T00961043  RH  037%=      5-min Rain = 0
KRO1 131508Z 08008KT 10/M04 A3033 RMK A01 T00981042  RH  037%=      5-min Rain = 0
KRO1 131509Z 08009KT 10/M04 A3033 RMK A01 T00971043  RH  037%=      5-min Rain = 0
KRO1 131510Z 09008KT 10/M04 A3033 RMK A01 T00971043  RH  037%=      5-min Rain = 0
KRO1 131511Z 08007KT 10/M04 A3033 RMK A01 T00961043  RH  037%=      5-min Rain = 0
KRO1 131512Z 08007KT 10/M04 A3033 RMK A01 T00981040  RH  037%=      5-min Rain = 0
KRO1 131513Z 08009KT 10/M04 A3033 RMK A01 T01011039  RH  037%=      5-min Rain = 0
KRO1 131514Z 08007KT 10/M04 A3033 RMK A01 T01021041  RH  036%=      5-min Rain = 0
KRO1 131515Z 08008KT 10/M04 A3033 RMK A01 T01021041  RH  036%=      5-min Rain = 0
KRO1 131516Z 08007KT 10/M04 A3033 RMK A01 T01011041  RH  036%=      5-min Rain = 0
KRO1 131517Z 11007KT 10/M04 A3033 RMK A01 T01021040  RH  037%=      5-min Rain = 0
KRO1 131518Z 09007KT 10/M04 A3034 RMK A01 T01031040  RH  036%=      5-min Rain = 0
KRO1 131519Z 08009KT 11/M04 A3034 RMK A01 T01051039  RH  036%=      5-min Rain = 0
KRO1 131520Z 07009KT 11/M04 A3034 RMK A01 T01051042  RH  035%=      5-min Rain = 0
KRO1 131521Z 08009KT 10/M04 A3034 RMK A01 T01041042  RH  036%=      5-min Rain = 0
KRO1 131522Z 08007KT 10/M04 A3034 RMK A01 T01021043  RH  036%=      5-min Rain = 0
KRO1 131523Z 10008KT 10/M04 A3034 RMK A01 T01031041  RH  036%=      5-min Rain = 0
KRO1 131524Z 11008KT 11/M04 A3034 RMK A01 T01061039  RH  036%=      5-min Rain = 0
KRO1 131525Z 08008KT 11/M04 A3034 RMK A01 T01081039  RH  035%=      5-min Rain = 0
KRO1 131526Z 07009KT 11/M04 A3034 RMK A01 T01091041  RH  035%=      5-min Rain = 0
KRO1 131527Z 08008KT 11/M04 A3034 RMK A01 T01061043  RH  035%=      5-min Rain = 0
KRO1 131528Z 09008KT 11/M04 A3034 RMK A01 T01061042  RH  035%=      5-min Rain = 0
KRO1 131529Z 09007KT 11/M04 A3034 RMK A01 T01051043  RH  035%=      5-min Rain = 0
KRO1 131530Z 09007KT 11/M04 A3035 RMK A01 T01051042  RH  035%=      5-min Rain = 0
KRO1 131531Z 09007KT 11/M04 A3035 RMK A01 T01051042  RH  035%=      5-min Rain = 0
KRO1 131532Z 07008KT 11/M04 A3035 RMK A01 T01071040  RH  035%=      5-min Rain = 0
KRO1 131533Z 08008KT 11/M04 A3035 RMK A01 T01081041  RH  035%=      5-min Rain = 0
KRO1 131534Z 09008KT 11/M04 A3035 RMK A01 T01091040  RH  035%=      5-min Rain = 0
KRO1 131535Z 09009KT 11/M04 A3035 RMK A01 T01111040  RH  035%=      5-min Rain = 0
KRO1 131536Z 09007KT 11/M04 A3035 RMK A01 T01081042  RH  035%=      5-min Rain = 0
KRO1 131537Z 09008KT 11/M04 A3035 RMK A01 T01091040  RH  035%=      5-min Rain = 0
KRO1 131538Z 08008KT 11/M04 A3035 RMK A01 T01101039  RH  035%=      5-min Rain = 0
KRO1 131539Z 08009KT 11/M04 A3035 RMK A01 T01101040  RH  035%=      5-min Rain = 0
KRO1 131540Z 09009KT 11/M04 A3035 RMK A01 T01091041  RH  035%=      5-min Rain = 0
KRO1 131541Z 08007KT 11/M04 A3035 RMK A01 T01081041  RH  035%=      5-min Rain = 0
KRO1 131542Z 08006KT 11/M04 A3035 RMK A01 T01081042  RH  035%=      5-min Rain = 0
KRO1 131543Z 09008KT 11/M04 A3035 RMK A01 T01071041  RH  035%=      5-min Rain = 0
KRO1 131544Z 09007KT 11/M04 A3035 RMK A01 T01081040  RH  035%=      5-min Rain = 0
KRO1 131545Z 08008KT 11/M04 A3035 RMK A01 T01111039  RH  035%=      5-min Rain = 0
KRO1 131546Z 07009KT 11/M04 A3035 RMK A01 T01101041  RH  034%=      5-min Rain = 0
KRO1 131547Z 08009KT 11/M04 A3035 RMK A01 T01111039  RH  035%=      5-min Rain = 0
KRO1 131548Z 08007KT 11/M04 A3035 RMK A01 T01111041  RH  034%=      5-min Rain = 0
KRO1 131549Z 11008KT 11/M04 A3035 RMK A01 T01121039  RH  034%=      5-min Rain = 0
KRO1 131550Z 10006KT 11/M04 A3035 RMK A01 T01121040  RH  034%=      5-min Rain = 0
KRO1 131551Z 10006KT 11/M04 A3035 RMK A01 T01141039  RH  034%=      5-min Rain = 0
KRO1 131552Z 09007KT 12/M04 A3035 RMK A01 T01151039  RH  034%=      5-min Rain = 0
KRO1 131553Z 09008KT 12/M04 A3035 RMK A01 T01151039  RH  034%=      5-min Rain = 0
KRO1 131554Z 07010KT 12/M04 A3035 RMK A01 T01181038  RH  033%=      5-min Rain = 0
KRO1 131555Z 09006KT 12/M04 A3035 RMK A01 T01191040  RH  033%=      5-min Rain = 0
KRO1 131556Z 08009KT 12/M04 A3035 RMK A01 T01181039  RH  033%=      5-min Rain = 0
KRO1 131557Z 08008KT 12/M04 A3035 RMK A01 T01181038  RH  033%=      5-min Rain = 0
KRO1 131558Z 07007KT 12/M04 A3035 RMK A01 T01191038  RH  033%=      5-min Rain = 0
KRO1 131559Z 09007KT 12/M04 A3035 RMK A01 T01191039  RH  033%=      5-min Rain = 0
KRO1 131600Z 08009KT 12/M04 A3035 RMK A01 T01191038  RH  033%=      5-min Rain = 0
KRO1 131601Z 08009KT 12/M04 A3035 RMK A01 T01201039  RH  033%=      5-min Rain = 0
KRO1 131602Z 08007KT 12/M04 A3035 RMK A01 T01181039  RH  033%=      5-min Rain = 0
KRO1 131603Z 07009KT 12/M04 A3035 RMK A01 T01171039  RH  033%=      5-min Rain = 0
KRO1 131604Z 08007KT 12/M04 A3035 RMK A01 T01161040  RH  033%=      5-min Rain = 0
KRO1 131605Z 11007KT 12/M04 A3035 RMK A01 T01181036  RH  034%=      5-min Rain = 0
KRO1 131606Z 10010KT 12/M04 A3035 RMK A01 T01221035  RH  033%=      5-min Rain = 0
KRO1 131607Z 09009KT 12/M04 A3035 RMK A01 T01231037  RH  033%=      5-min Rain = 0
KRO1 131608Z 10009KT 12/M04 A3035 RMK A01 T01221037  RH  033%=      5-min Rain = 0
KRO1 131609Z 10007KT 12/M04 A3035 RMK A01 T01221037  RH  033%=      5-min Rain = 0
KRO1 131610Z 07005KT 12/M04 A3035 RMK A01 T01231037  RH  033%=      5-min Rain = 0
KRO1 131611Z 06008KT 12/M04 A3035 RMK A01 T01221037  RH  033%=      5-min Rain = 0
KRO1 131612Z 09010KT 12/M04 A3035 RMK A01 T01241036  RH  033%=      5-min Rain = 0
KRO1 131613Z 09008KT 13/M04 A3035 RMK A01 T01251037  RH  032%=      5-min Rain = 0
KRO1 131614Z 09006KT 12/M04 A3035 RMK A01 T01221039  RH  032%=      5-min Rain = 0
KRO1 131615Z 07006KT 12/M04 A3035 RMK A01 T01211037  RH  033%=      5-min Rain = 0
KRO1 131616Z 07007KT 12/M04 A3035 RMK A01 T01241036  RH  033%=      5-min Rain = 0
KRO1 131617Z 07008KT 12/M04 A3035 RMK A01 T01231037  RH  032%=      5-min Rain = 0
KRO1 131618Z 07007KT 13/M04 A3035 RMK A01 T01251035  RH  033%=      5-min Rain = 0
KRO1 131619Z 07008KT 13/M03 A3035 RMK A01 T01301032  RH  032%=      5-min Rain = 0
KRO1 131620Z 06007KT 13/M04 A3035 RMK A01 T01301035  RH  031%=      5-min Rain = 0
KRO1 131621Z 11008KT 13/M04 A3035 RMK A01 T01291035  RH  032%=      5-min Rain = 0
KRO1 131622Z 10008KT 13/M04 A3035 RMK A01 T01291035  RH  032%=      5-min Rain = 0
KRO1 131623Z 10006KT 13/M03 A3035 RMK A01 T01291034  RH  032%=      5-min Rain = 0
KRO1 131624Z 09006KT 13/M03 A3035 RMK A01 T01311033  RH  032%=      5-min Rain = 0
KRO1 131625Z 11007KT 13/M03 A3035 RMK A01 T01311033  RH  032%=      5-min Rain = 0
KRO1 131626Z 11008KT 14/M03 A3035 RMK A01 T01351031  RH  032%=      5-min Rain = 0
KRO1 131627Z 10009KT 14/M03 A3035 RMK A01 T01351034  RH  031%=      5-min Rain = 0
KRO1 131628Z 11007KT 13/M04 A3035 RMK A01 T01311037  RH  031%=      5-min Rain = 0
KRO1 131629Z 10007KT 13/M04 A3035 RMK A01 T01291035  RH  032%=      5-min Rain = 0
KRO1 131630Z 09007KT 13/M04 A3035 RMK A01 T01311035  RH  031%=      5-min Rain = 0
KRO1 131631Z 10005KT 13/M04 A3035 RMK A01 T01301035  RH  032%=      5-min Rain = 0
KRO1 131632Z 09003KT 13/M03 A3035 RMK A01 T01311033  RH  032%=      5-min Rain = 0
KRO1 131633Z 09003KT 13/M03 A3035 RMK A01 T01321033  RH  032%=      5-min Rain = 0
KRO1 131634Z 09008KT 14/M03 A3035 RMK A01 T01361031  RH  031%=      5-min Rain = 0
KRO1 131635Z 08008KT 14/M04 A3035 RMK A01 T01361035  RH  031%=      5-min Rain = 0
KRO1 131636Z 08007KT 13/M04 A3035 RMK A01 T01331035  RH  031%=      5-min Rain = 0
KRO1 131637Z 07004KT 13/M04 A3035 RMK A01 T01311036  RH  031%=      5-min Rain = 0
KRO1 131638Z 10009KT 13/M03 A3035 RMK A01 T01321032  RH  032%=      5-min Rain = 0
KRO1 131639Z 09008KT 13/M03 A3035 RMK A01 T01341034  RH  031%=      5-min Rain = 0
KRO1 131640Z 07008KT 13/M03 A3035 RMK A01 T01331034  RH  031%=      5-min Rain = 0
KRO1 131641Z 06008KT 13/M03 A3035 RMK A01 T01331034  RH  031%=      5-min Rain = 0
KRO1 131642Z 08007KT 13/M03 A3035 RMK A01 T01331034  RH  031%=      5-min Rain = 0
KRO1 131643Z 11007KT 13/M03 A3035 RMK A01 T01331034  RH  031%=      5-min Rain = 0
KRO1 131644Z 10010KT 13/M03 A3035 RMK A01 T01341034  RH  031%=      5-min Rain = 0
KRO1 131645Z 10006KT 13/M04 A3035 RMK A01 T01331035  RH  031%=      5-min Rain = 0
KRO1 131646Z 11008KT 13/M04 A3035 RMK A01 T01331035  RH  031%=      5-min Rain = 0
KRO1 131647Z 11007KT 13/M03 A3035 RMK A01 T01331034  RH  031%=      5-min Rain = 0
KRO1 131648Z 12003KT 13/M04 A3035 RMK A01 T01331035  RH  031%=      5-min Rain = 0
KRO1 131649Z 10003KT 13/M03 A3035 RMK A01 T01331034  RH  031%=      5-min Rain = 0
KRO1 131650Z 08007KT 13/M03 A3035 RMK A01 T01341034  RH  031%=      5-min Rain = 0
KRO1 131651Z 07010KT 14/M03 A3035 RMK A01 T01361034  RH  031%=      5-min Rain = 0
KRO1 131652Z 07011KT 14/M03 A3034 RMK A01 T01381034  RH  030%=      5-min Rain = 0
KRO1 131653Z 07009KT 14/M03 A3034 RMK A01 T01381034  RH  030%=      5-min Rain = 0
KRO1 131654Z 08007KT 14/M04 A3034 RMK A01 T01381035  RH  030%=      5-min Rain = 0
KRO1 131655Z 08008KT 14/M03 A3034 RMK A01 T01381034  RH  030%=      5-min Rain = 0
KRO1 131656Z 08007KT 14/M04 A3034 RMK A01 T01391035  RH  030%=      5-min Rain = 0
KRO1 131657Z 06003KT 14/M04 A3034 RMK A01 T01371036  RH  030%=      5-min Rain = 0
KRO1 131658Z 06004KT 14/M04 A3034 RMK A01 T01361035  RH  030%=      5-min Rain = 0
KRO1 131659Z 04005KT 14/M04 A3034 RMK A01 T01351036  RH  030%=      5-min Rain = 0
KRO1 131700Z 09008KT 14/M03 A3034 RMK A01 T01371033  RH  031%=      5-min Rain = 0
KRO1 131701Z 08010KT 14/M03 A3034 RMK A01 T01411033  RH  030%=      5-min Rain = 0
KRO1 131702Z 07011KT 14/M04 A3034 RMK A01 T01421035  RH  029%=      5-min Rain = 0
KRO1 131703Z 08009KT 14/M04 A3034 RMK A01 T01401037  RH  029%=      5-min Rain = 0
KRO1 131704Z 06007G12KT 14/M04 A3034 RMK A01 T01381037  RH  030%=      5-min Rain = 0
KRO1 131705Z 07007KT 14/M04 A3034 RMK A01 T01371036  RH  030%=      5-min Rain = 0
KRO1 131706Z 07004KT 14/M04 A3034 RMK A01 T01361037  RH  030%=      5-min Rain = 0
KRO1 131707Z 06003KT 14/M04 A3034 RMK A01 T01351037  RH  030%=      5-min Rain = 0
KRO1 131708Z 06006KT 14/M03 A3034 RMK A01 T01371033  RH  031%=      5-min Rain = 0
KRO1 131709Z 04008KT 14/M03 A3034 RMK A01 T01421032  RH  030%=      5-min Rain = 0
KRO1 131710Z 03009KT 14/M03 A3034 RMK A01 T01441034  RH  029%=      5-min Rain = 0
KRO1 131711Z 04005KT 14/M04 A3034 RMK A01 T01431035  RH  029%=      5-min Rain = 0
KRO1 131712Z 05009KT 14/M03 A3034 RMK A01 T01431033  RH  029%=      5-min Rain = 0
KRO1 131713Z 06009KT 15/M03 A3034 RMK A01 T01461033  RH  029%=      5-min Rain = 0
KRO1 131714Z 05007KT 15/M04 A3034 RMK A01 T01451036  RH  028%=      5-min Rain = 0
KRO1 131715Z 06011KT 14/M04 A3034 RMK A01 T01431036  RH  029%=      5-min Rain = 0
KRO1 131716Z 05012KT 14/M04 A3034 RMK A01 T01421036  RH  029%=      5-min Rain = 0
KRO1 131717Z 05010KT 14/M04 A3034 RMK A01 T01421036  RH  029%=      5-min Rain = 0
KRO1 131718Z 05006KT 14/M04 A3034 RMK A01 T01391039  RH  029%=      5-min Rain = 0
KRO1 131719Z 06010KT 14/M04 A3034 RMK A01 T01381036  RH  030%=      5-min Rain = 0
KRO1 131720Z 05010KT 14/M03 A3034 RMK A01 T01421034  RH  029%=      5-min Rain = 0
KRO1 131721Z 08007KT 14/M04 A3034 RMK A01 T01441036  RH  029%=      5-min Rain = 0
KRO1 131722Z 08009KT 14/M04 A3034 RMK A01 T01421036  RH  029%=      5-min Rain = 0
KRO1 131723Z 08009KT 14/M04 A3034 RMK A01 T01411036  RH  029%=      5-min Rain = 0
KRO1 131724Z 09009KT 14/M04 A3034 RMK A01 T01411035  RH  029%=      5-min Rain = 0
KRO1 131725Z 08007KT 14/M04 A3034 RMK A01 T01411035  RH  029%=      5-min Rain = 0
KRO1 131726Z 03006KT 14/M04 A3034 RMK A01 T01411035  RH  029%=      5-min Rain = 0
KRO1 131727Z 06005KT 14/M04 A3034 RMK A01 T01421035  RH  029%=      5-min Rain = 0
KRO1 131728Z 09009KT 14/M03 A3034 RMK A01 T01431034  RH  029%=      5-min Rain = 0
KRO1 131729Z 08010KT 15/M03 A3034 RMK A01 T01461033  RH  029%=      5-min Rain = 0
KRO1 131730Z 08009KT 15/M03 A3034 RMK A01 T01501033  RH  028%=      5-min Rain = 0
KRO1 131731Z 08007KT 15/M04 A3033 RMK A01 T01461037  RH  028%=      5-min Rain = 0
KRO1 131732Z 05008KT 14/M04 A3033 RMK A01 T01441035  RH  029%=      5-min Rain = 0
KRO1 131733Z 08011KT 15/M03 A3033 RMK A01 T01471034  RH  028%=      5-min Rain = 0
KRO1 131734Z 09008KT 15/M04 A3033 RMK A01 T01491035  RH  028%=      5-min Rain = 0
KRO1 131735Z 06009G14KT 15/M03 A3033 RMK A01 T01501033  RH  028%=      5-min Rain = 0
KRO1 131736Z 08011KT 15/M03 A3033 RMK A01 T01531034  RH  027%=      5-min Rain = 0
KRO1 131737Z 06010KT 15/M04 A3033 RMK A01 T01491036  RH  028%=      5-min Rain = 0
KRO1 131738Z 07013KT 15/M04 A3033 RMK A01 T01481037  RH  028%=      5-min Rain = 0
KRO1 131739Z 07009KT 15/M04 A3033 RMK A01 T01451038  RH  028%=      5-min Rain = 0
KRO1 131740Z 06012KT 14/M04 A3033 RMK A01 T01431037  RH  029%=      5-min Rain = 0
KRO1 131741Z 06008KT 14/M04 A3033 RMK A01 T01431036  RH  029%=      5-min Rain = 0
KRO1 131742Z 08008KT 14/M04 A3033 RMK A01 T01441036  RH  029%=      5-min Rain = 0
KRO1 131743Z 07005KT 14/M04 A3033 RMK A01 T01431037  RH  029%=      5-min Rain = 0
KRO1 131744Z 07008G13KT 14/M03 A3033 RMK A01 T01441034  RH  029%=      5-min Rain = 0
KRO1 131745Z 08009KT 15/M03 A3033 RMK A01 T01491034  RH  028%=      5-min Rain = 0
KRO1 131746Z 07007KT 15/M04 A3033 RMK A01 T01471037  RH  028%=      5-min Rain = 0
KRO1 131747Z 08011KT 15/M03 A3033 RMK A01 T01481034  RH  028%=      5-min Rain = 0
KRO1 131748Z 09012KT 15/M04 A3033 RMK A01 T01491036  RH  028%=      5-min Rain = 0
KRO1 131749Z 09009KT 15/M04 A3033 RMK A01 T01491036  RH  028%=      5-min Rain = 0
KRO1 131750Z 10007KT 15/M04 A3033 RMK A01 T01491037  RH  028%=      5-min Rain = 0
KRO1 131751Z 09011KT 15/M04 A3033 RMK A01 T01491036  RH  028%=      5-min Rain = 0
KRO1 131752Z 09009KT 15/M04 A3033 RMK A01 T01491038  RH  027%=      5-min Rain = 0
KRO1 131753Z 09009KT 15/M04 A3033 RMK A01 T01461038  RH  028%=      5-min Rain = 0
KRO1 131754Z 07007KT 15/M04 A3033 RMK A01 T01491035  RH  028%=      5-min Rain = 0
KRO1 131755Z 06006KT 15/M04 A3033 RMK A01 T01491038  RH  027%=      5-min Rain = 0
KRO1 131756Z 04007KT 15/M04 A3033 RMK A01 T01471038  RH  028%=      5-min Rain = 0
KRO1 131757Z 06008G13KT 15/M04 A3033 RMK A01 T01501035  RH  028%=      5-min Rain = 0
KRO1 131758Z 05012KT 15/M04 A3033 RMK A01 T01521036  RH  027%=      5-min Rain = 0
KRO1 131759Z 07013KT 15/M04 A3033 RMK A01 T01541036  RH  027%=      5-min Rain = 0
KRO1 131800Z 09009KT 15/M04 A3033 RMK A01 T01521039  RH  026%=      5-min Rain = 0
KRO1 131801Z 07010KT 15/M04 A3033 RMK A01 T01481040  RH  027%=      5-min Rain = 0
KRO1 131802Z 06006KT 15/M04 A3033 RMK A01 T01491037  RH  027%=      5-min Rain = 0
KRO1 131803Z 07006KT 15/M04 A3033 RMK A01 T01481038  RH  027%=      5-min Rain = 0
KRO1 131804Z 11008KT 15/M04 A3033 RMK A01 T01481037  RH  028%=      5-min Rain = 0
KRO1 131805Z 07011KT 15/M04 A3033 RMK A01 T01501037  RH  027%=      5-min Rain = 0
KRO1 131806Z 07012KT 15/M04 A3033 RMK A01 T01511037  RH  027%=      5-min Rain = 0
KRO1 131807Z 07012KT 15/M04 A3033 RMK A01 T01521037  RH  027%=      5-min Rain = 0
KRO1 131808Z 06012KT 15/M04 A3033 RMK A01 T01531037  RH  027%=      5-min Rain = 0
KRO1 131809Z 05010KT 15/M04 A3033 RMK A01 T01521038  RH  027%=      5-min Rain = 0
KRO1 131810Z 05007KT 15/M04 A3033 RMK A01 T01491038  RH  027%=      5-min Rain = 0
KRO1 131811Z 08006KT 15/M04 A3033 RMK A01 T01511036  RH  027%=      5-min Rain = 0
KRO1 131812Z 08005KT 15/M04 A3033 RMK A01 T01501039  RH  027%=      5-min Rain = 0
KRO1 131813Z 07010KT 15/M04 A3032 RMK A01 T01481038  RH  028%=      5-min Rain = 0
KRO1 131814Z 05010KT 15/M04 A3032 RMK A01 T01501036  RH  027%=      5-min Rain = 0
KRO1 131815Z 06010KT 16/M03 A3032 RMK A01 T01551034  RH  027%=      5-min Rain = 0
KRO1 131816Z 05012KT 16/M04 A3032 RMK A01 T01571037  RH  026%=      5-min Rain = 0
KRO1 131817Z 05007KT 15/M04 A3032 RMK A01 T01531039  RH  026%=      5-min Rain = 0
KRO1 131818Z 07008G14KT 15/M04 A3032 RMK A01 T01541036  RH  027%=      5-min Rain = 0
KRO1 131819Z 08011KT 16/M04 A3032 RMK A01 T01551038  RH  026%=      5-min Rain = 0
KRO1 131820Z 09008G14KT 15/M04 A3032 RMK A01 T01541039  RH  026%=      5-min Rain = 0
KRO1 131821Z 07010KT 15/M04 A3032 RMK A01 T01521039  RH  027%=      5-min Rain = 0
KRO1 131822Z 07010KT 15/M04 A3032 RMK A01 T01521039  RH  027%=      5-min Rain = 0
KRO1 131823Z 07011KT 15/M04 A3032 RMK A01 T01531037  RH  027%=      5-min Rain = 0
KRO1 131824Z 08010KT 16/M04 A3032 RMK A01 T01561037  RH  026%=      5-min Rain = 0
KRO1 131825Z 07008KT 15/M04 A3032 RMK A01 T01541038  RH  026%=      5-min Rain = 0
KRO1 131826Z 06011KT 15/M04 A3032 RMK A01 T01541038  RH  027%=      5-min Rain = 0
KRO1 131827Z 07010KT 16/M04 A3032 RMK A01 T01561037  RH  026%=      5-min Rain = 0
KRO1 131828Z 07007KT 15/M04 A3032 RMK A01 T01531041  RH  026%=      5-min Rain = 0
KRO1 131829Z 05010KT 15/M04 A3032 RMK A01 T01501039  RH  027%=      5-min Rain = 0
KRO1 131830Z 03013KT 15/M04 A3031 RMK A01 T01541036  RH  027%=      5-min Rain = 0
KRO1 131831Z 04009KT 16/M04 A3032 RMK A01 T01561038  RH  026%=      5-min Rain = 0
KRO1 131832Z 04007KT 15/M04 A3031 RMK A01 T01531039  RH  026%=      5-min Rain = 0
KRO1 131833Z 06008G16KT 15/M04 A3031 RMK A01 T01541037  RH  027%=      5-min Rain = 0
KRO1 131834Z 07014KT 16/M04 A3031 RMK A01 T01581036  RH  026%=      5-min Rain = 0
KRO1 131835Z 06013KT 16/M04 A3031 RMK A01 T01581038  RH  026%=      5-min Rain = 0
KRO1 131836Z 06013KT 16/M04 A3031 RMK A01 T01601038  RH  025%=      5-min Rain = 0
KRO1 131837Z 05011KT 16/M04 A3031 RMK A01 T01561041  RH  025%=      5-min Rain = 0
KRO1 131838Z 05011KT 16/M04 A3031 RMK A01 T01571038  RH  026%=      5-min Rain = 0
KRO1 131839Z 04008KT 16/M04 A3031 RMK A01 T01571040  RH  025%=      5-min Rain = 0
KRO1 131840Z 05011KT 16/M04 A3031 RMK A01 T01561038  RH  026%=      5-min Rain = 0
KRO1 131841Z 06010KT 16/M04 A3031 RMK A01 T01601038  RH  025%=      5-min Rain = 0
KRO1 131842Z 07012KT 16/M04 A3031 RMK A01 T01601039  RH  025%=      5-min Rain = 0
KRO1 131843Z 09010KT 16/M04 A3031 RMK A01 T01571040  RH  026%=      5-min Rain = 0
KRO1 131844Z 06010KT 16/M04 A3031 RMK A01 T01561037  RH  026%=      5-min Rain = 0
KRO1 131845Z 06007KT 16/M04 A3031 RMK A01 T01561039  RH  026%=      5-min Rain = 0
KRO1 131846Z 06011G16KT 16/M04 A3031 RMK A01 T01551038  RH  026%=      5-min Rain = 0
KRO1 131847Z 08008KT 16/M04 A3031 RMK A01 T01561038  RH  026%=      5-min Rain = 0
KRO1 131848Z 07007G12KT 16/M04 A3031 RMK A01 T01561038  RH  026%=      5-min Rain = 0
KRO1 131849Z 05012KT 16/M04 A303 RMK A01 T01571038  RH  026%=      5-min Rain = 0
KRO1 131850Z 06013KT 16/M04 A303 RMK A01 T01581039  RH  026%=      5-min Rain = 0
KRO1 131851Z 07012KT 16/M04 A303 RMK A01 T01601038  RH  025%=      5-min Rain = 0
KRO1 131852Z 07009KT 16/M04 A303 RMK A01 T01571041  RH  025%=      5-min Rain = 0
KRO1 131853Z 06009KT 16/M04 A303 RMK A01 T01561039  RH  026%=      5-min Rain = 0
KRO1 131854Z 05009KT 16/M04 A303 RMK A01 T01611037  RH  025%=      5-min Rain = 0
KRO1 131855Z 04008KT 16/M04 A303 RMK A01 T01601040  RH  025%=      5-min Rain = 0
KRO1 131856Z 06009KT 16/M04 A303 RMK A01 T01591039  RH  025%=      5-min Rain = 0
KRO1 131857Z 04014KT 16/M04 A303 RMK A01 T01611037  RH  025%=      5-min Rain = 0
KRO1 131858Z 03009KT 16/M04 A303 RMK A01 T01601042  RH  025%=      5-min Rain = 0
KRO1 131859Z 08011KT 16/M04 A303 RMK A01 T01571040  RH  026%=      5-min Rain = 0
KRO1 131900Z 09011KT 16/M04 A303 RMK A01 T01641036  RH  025%=      5-min Rain = 0
KRO1 131901Z 09013KT 17/M04 A303 RMK A01 T01651040  RH  024%=      5-min Rain = 0
KRO1 131902Z 07012KT 16/M04 A303 RMK A01 T01611041  RH  025%=      5-min Rain = 0
KRO1 131903Z 08012KT 16/M04 A303 RMK A01 T01621041  RH  025%=      5-min Rain = 0
KRO1 131904Z 08011KT 16/M04 A303 RMK A01 T01601041  RH  025%=      5-min Rain = 0
KRO1 131905Z 08009KT 16/M04 A303 RMK A01 T01631038  RH  025%=      5-min Rain = 0
KRO1 131906Z 06009KT 17/M04 A303 RMK A01 T01691036  RH  024%=      5-min Rain = 0
KRO1 131907Z 05009KT 17/M04 A303 RMK A01 T01731035  RH  024%=      5-min Rain = 0
KRO1 131908Z 04012KT 17/M04 A3029 RMK A01 T01721041  RH  023%=      5-min Rain = 0
KRO1 131909Z 03010KT 17/M04 A303 RMK A01 T01651044  RH  024%=      5-min Rain = 0
KRO1 131910Z 02010KT 16/M04 A303 RMK A01 T01591044  RH  024%=      5-min Rain = 0
KRO1 131911Z 02009KT 16/M04 A303 RMK A01 T01611040  RH  025%=      5-min Rain = 0
KRO1 131912Z 04011G16KT 16/M04 A303 RMK A01 T01631040  RH  025%=      5-min Rain = 0
KRO1 131913Z 04011KT 16/M04 A303 RMK A01 T01631042  RH  024%=      5-min Rain = 0
KRO1 131914Z 05012KT 16/M04 A303 RMK A01 T01621042  RH  024%=      5-min Rain = 0
KRO1 131915Z 04008KT 16/M04 A303 RMK A01 T01621043  RH  024%=      5-min Rain = 0
KRO1 131916Z 03007KT 16/M05 A3029 RMK A01 T01591045  RH  024%=      5-min Rain = 0
KRO1 131917Z 02008KT 16/M04 A3029 RMK A01 T01571044  RH  025%=      5-min Rain = 0
KRO1 131918Z 06009KT 16/M04 A3029 RMK A01 T01611041  RH  025%=      5-min Rain = 0
KRO1 131919Z 04011G16KT 16/M04 A3029 RMK A01 T01631042  RH  024%=      5-min Rain = 0
KRO1 131920Z 04013KT 17/M04 A3029 RMK A01 T01671041  RH  024%=      5-min Rain = 0
KRO1 131921Z 04012KT 17/M05 A3029 RMK A01 T01671045  RH  023%=      5-min Rain = 0
KRO1 131922Z 04009KT 16/M05 A3029 RMK A01 T01621047  RH  023%=      5-min Rain = 0
KRO1 131923Z 04009KT 16/M05 A3029 RMK A01 T01571048  RH  024%=      5-min Rain = 0
KRO1 131924Z 03007KT 16/M05 A3029 RMK A01 T01561045  RH  025%=      5-min Rain = 0
KRO1 131925Z 06008KT 16/M04 A3029 RMK A01 T01571044  RH  025%=      5-min Rain = 0
KRO1 131926Z 05008G14KT 16/M04 A3029 RMK A01 T01601044  RH  024%=      5-min Rain = 0
KRO1 131927Z 06010KT 16/M05 A3029 RMK A01 T01601045  RH  024%=      5-min Rain = 0
KRO1 131928Z 06010KT 16/M05 A3029 RMK A01 T01621045  RH  024%=      5-min Rain = 0
KRO1 131929Z 07005KT 16/M05 A3029 RMK A01 T01621046  RH  024%=      5-min Rain = 0
KRO1 131930Z 10006KT 16/M05 A3029 RMK A01 T01601047  RH  024%=      5-min Rain = 0
KRO1 131931Z 09006KT 16/M05 A3029 RMK A01 T01591046  RH  024%=      5-min Rain = 0
KRO1 131932Z 08009KT 16/M05 A3029 RMK A01 T01601045  RH  024%=      5-min Rain = 0
KRO1 131933Z 06011KT 16/M05 A3029 RMK A01 T01611045  RH  024%=      5-min Rain = 0
KRO1 131934Z 04013KT 17/M04 A3029 RMK A01 T01691042  RH  023%=      5-min Rain = 0
KRO1 131935Z 03013KT 17/M05 A3029 RMK A01 T01701046  RH  022%=      5-min Rain = 0
KRO1 131936Z 04012KT 17/M05 A3029 RMK A01 T01651049  RH  023%=      5-min Rain = 0
KRO1 131937Z 04010KT 16/M05 A3029 RMK A01 T01631049  RH  023%=      5-min Rain = 0
KRO1 131938Z 04008KT 16/M05 A3029 RMK A01 T01621048  RH  023%=      5-min Rain = 0
KRO1 131939Z 05005KT 16/M05 A3029 RMK A01 T01641047  RH  023%=      5-min Rain = 0
KRO1 131940Z 04008KT 17/M05 A3029 RMK A01 T01661046  RH  023%=      5-min Rain = 0
KRO1 131941Z 04011KT 17/M05 A3029 RMK A01 T01661047  RH  023%=      5-min Rain = 0
KRO1 131942Z 03009KT 17/M05 A3029 RMK A01 T01661047  RH  023%=      5-min Rain = 0
KRO1 131943Z 03010KT 16/M05 A3028 RMK A01 T01641047  RH  023%=      5-min Rain = 0
KRO1 131944Z 04008KT 17/M05 A3028 RMK A01 T01651046  RH  023%=      5-min Rain = 0
KRO1 131945Z 06012KT 17/M04 A3028 RMK A01 T01691044  RH  023%=      5-min Rain = 0
KRO1 131946Z 06013KT 18/M05 A3028 RMK A01 T01751046  RH  022%=      5-min Rain = 0
KRO1 131947Z 07013KT 17/M05 A3028 RMK A01 T01701050  RH  022%=      5-min Rain = 0
KRO1 131948Z 05008G13KT 16/M05 A3028 RMK A01 T01641052  RH  022%=      5-min Rain = 0
KRO1 131949Z 06006KT 16/M05 A3028 RMK A01 T01621050  RH  023%=      5-min Rain = 0
KRO1 131950Z 05006KT 16/M05 A3028 RMK A01 T01611050  RH  023%=      5-min Rain = 0
KRO1 131951Z 06005KT 16/M05 A3028 RMK A01 T01611048  RH  023%=      5-min Rain = 0
KRO1 131952Z 07007KT 17/M04 A3028 RMK A01 T01651044  RH  024%=      5-min Rain = 0
KRO1 131953Z 05008G14KT 17/M04 A3028 RMK A01 T01701044  RH  023%=      5-min Rain = 0
KRO1 131954Z 07016KT 17/M05 A3028 RMK A01 T01731045  RH  022%=      5-min Rain = 0
KRO1 131955Z 07012KT 17/M05 A3028 RMK A01 T01721047  RH  022%=      5-min Rain = 0
KRO1 131956Z 08013KT 17/M05 A3028 RMK A01 T01721047  RH  022%=      5-min Rain = 0
KRO1 131957Z 08009KT 17/M05 A3028 RMK A01 T01741048  RH  022%=      5-min Rain = 0
KRO1 131958Z 04009KT 17/M05 A3028 RMK A01 T01731048  RH  022%=      5-min Rain = 0
KRO1 131959Z 04009KT 17/M05 A3028 RMK A01 T01711049  RH  022%=      5-min Rain = 0
KRO1 132000Z 05012KT 17/M05 A3028 RMK A01 T01711049  RH  022%=      5-min Rain = 0
KRO1 132001Z 05012KT 17/M05 A3028 RMK A01 T01731049  RH  022%=      5-min Rain = 0
KRO1 132002Z 04010KT 18/M05 A3028 RMK A01 T01751050  RH  021%=      5-min Rain = 0
KRO1 132003Z 05008KT 17/M05 A3028 RMK A01 T01711051  RH  021%=      5-min Rain = 0
KRO1 132004Z 05007KT 17/M05 A3028 RMK A01 T01691049  RH  022%=      5-min Rain = 0
KRO1 132005Z 04010KT 17/M05 A3028 RMK A01 T01721048  RH  022%=      5-min Rain = 0
KRO1 132006Z 05010KT 17/M05 A3028 RMK A01 T01721050  RH  022%=      5-min Rain = 0
KRO1 132007Z 06007G12KT 17/M05 A3028 RMK A01 T01711051  RH  021%=      5-min Rain = 0
KRO1 132008Z 05005KT 17/M05 A3028 RMK A01 T01681051  RH  022%=      5-min Rain = 0
KRO1 132009Z 07007KT 17/M05 A3028 RMK A01 T01651051  RH  022%=      5-min Rain = 0
KRO1 132010Z 06007G12KT 17/M05 A3028 RMK A01 T01661048  RH  023%=      5-min Rain = 0
KRO1 132011Z 07012KT 17/M05 A3028 RMK A01 T01711046  RH  022%=      5-min Rain = 0
KRO1 132012Z 06011KT 17/M05 A3028 RMK A01 T01731046  RH  022%=      5-min Rain = 0
KRO1 132013Z 04010KT 18/M05 A3028 RMK A01 T01791045  RH  021%=      5-min Rain = 0
KRO1 132014Z 05007KT 18/M05 A3028 RMK A01 T01771047  RH  021%=      5-min Rain = 0
KRO1 132015Z 08011KT 18/M05 A3028 RMK A01 T01771048  RH  021%=      5-min Rain = 0
KRO1 132016Z 08012KT 17/M05 A3028 RMK A01 T01731053  RH  021%=      5-min Rain = 0
KRO1 132017Z 09010KT 17/M06 A3028 RMK A01 T01681055  RH  021%=      5-min Rain = 0
KRO1 132018Z 08008KT 17/M05 A3028 RMK A01 T01651053  RH  022%=      5-min Rain = 0
KRO1 132019Z 07007KT 16/M05 A3028 RMK A01 T01631054  RH  022%=      5-min Rain = 0
KRO1 132020Z 08010KT 16/M05 A3028 RMK A01 T01631053  RH  022%=      5-min Rain = 0
KRO1 132021Z 08009KT 17/M05 A3028 RMK A01 T01661051  RH  022%=      5-min Rain = 0
KRO1 132022Z 07008KT 17/M05 A3028 RMK A01 T01651053  RH  022%=      5-min Rain = 0
KRO1 132023Z 08007KT 17/M05 A3028 RMK A01 T01671051  RH  022%=      5-min Rain = 0
KRO1 132024Z 08006KT 17/M05 A3028 RMK A01 T01681051  RH  022%=      5-min Rain = 0
KRO1 132025Z 06007KT 17/M05 A3028 RMK A01 T01661052  RH  022%=      5-min Rain = 0
KRO1 132026Z 05007KT 17/M05 A3028 RMK A01 T01691049  RH  022%=      5-min Rain = 0
KRO1 132027Z 07010KT 18/M05 A3028 RMK A01 T01751047  RH  022%=      5-min Rain = 0
KRO1 132028Z 08010KT 18/M05 A3028 RMK A01 T01771049  RH  021%=      5-min Rain = 0
KRO1 132029Z 09010KT 17/M05 A3028 RMK A01 T01721053  RH  021%=      5-min Rain = 0
KRO1 132030Z 10004KT 17/M05 A3028 RMK A01 T01661054  RH  022%=      5-min Rain = 0
KRO1 132031Z 13002KT 16/M05 A3028 RMK A01 T01641053  RH  022%=      5-min Rain = 0
KRO1 132032Z 10007KT 17/M05 A3027 RMK A01 T01651049  RH  023%=      5-min Rain = 0
KRO1 132033Z 09008KT 17/M05 A3027 RMK A01 T01701048  RH  022%=      5-min Rain = 0
KRO1 132034Z 09008KT 17/M05 A3027 RMK A01 T01711050  RH  022%=      5-min Rain = 0
KRO1 132035Z 10009KT 17/M05 A3027 RMK A01 T01721048  RH  022%=      5-min Rain = 0
KRO1 132036Z 09008KT 17/M05 A3027 RMK A01 T01701051  RH  022%=      5-min Rain = 0
KRO1 132037Z 09008KT 17/M05 A3027 RMK A01 T01691050  RH  022%=      5-min Rain = 0
KRO1 132038Z 06006KT 17/M05 A3027 RMK A01 T01681051  RH  022%=      5-min Rain = 0
KRO1 132039Z 08010KT 17/M05 A3027 RMK A01 T01691050  RH  022%=      5-min Rain = 0
KRO1 132040Z 07008KT 17/M05 A3027 RMK A01 T01701051  RH  022%=      5-min Rain = 0
KRO1 132041Z 06009KT 17/M05 A3027 RMK A01 T01701051  RH  022%=      5-min Rain = 0
KRO1 132042Z 04010KT 17/M05 A3027 RMK A01 T01711050  RH  022%=      5-min Rain = 0
KRO1 132043Z 04010KT 17/M05 A3027 RMK A01 T01741051  RH  021%=      5-min Rain = 0
KRO1 132044Z 06010KT 17/M05 A3027 RMK A01 T01741051  RH  021%=      5-min Rain = 0
KRO1 132045Z 06009KT 18/M05 A3027 RMK A01 T01751051  RH  021%=      5-min Rain = 0
KRO1 132046Z 04009KT 17/M05 A3027 RMK A01 T01731053  RH  021%=      5-min Rain = 0
KRO1 132047Z 06004KT 17/M05 A3027 RMK A01 T01701053  RH  021%=      5-min Rain = 0
KRO1 132048Z 04005KT 17/M05 A3027 RMK A01 T01691051  RH  022%=      5-min Rain = 0
KRO1 132049Z 04009KT 17/M05 A3027 RMK A01 T01731049  RH  021%=      5-min Rain = 0
KRO1 132050Z 03008KT 17/M05 A3027 RMK A01 T01741052  RH  021%=      5-min Rain = 0
KRO1 132051Z 05006G12KT 18/M05 A3027 RMK A01 T01751051  RH  021%=      5-min Rain = 0
KRO1 132052Z 07009KT 18/M05 A3027 RMK A01 T01751050  RH  021%=      5-min Rain = 0
KRO1 132053Z 10008KT 18/M05 A3027 RMK A01 T01771051  RH  021%=      5-min Rain = 0
KRO1 132054Z 10006KT 18/M05 A3027 RMK A01 T01751052  RH  021%=      5-min Rain = 0
KRO1 132055Z 07012KT 18/M05 A3027 RMK A01 T01751049  RH  021%=      5-min Rain = 0
KRO1 132056Z 07013KT 18/M05 A3027 RMK A01 T01771051  RH  021%=      5-min Rain = 0
KRO1 132057Z 06010KT 18/M05 A3027 RMK A01 T01751052  RH  021%=      5-min Rain = 0
KRO1 132058Z 06005KT 17/M05 A3027 RMK A01 T01711053  RH  021%=      5-min Rain = 0
KRO1 132059Z 08006KT 17/M05 A3027 RMK A01 T01691051  RH  022%=      5-min Rain = 0
KRO1 132100Z 10009KT 17/M05 A3027 RMK A01 T01711048  RH  022%=      5-min Rain = 0
KRO1 132101Z 11008KT 18/M05 A3027 RMK A01 T01771046  RH  021%=      5-min Rain = 0
KRO1 132102Z 11006KT 17/M05 A3027 RMK A01 T01741051  RH  021%=      5-min Rain = 0
KRO1 132103Z 09011KT 17/M05 A3027 RMK A01 T01711052  RH  021%=      5-min Rain = 0
KRO1 132104Z 11011KT 17/M05 A3027 RMK A01 T01711051  RH  021%=      5-min Rain = 0
KRO1 132105Z 11009KT 17/M05 A3027 RMK A01 T01711051  RH  021%=      5-min Rain = 0
KRO1 132106Z 12010KT 17/M05 A3027 RMK A01 T01701050  RH  022%=      5-min Rain = 0
KRO1 132107Z 11007KT 18/M05 A3027 RMK A01 T01751048  RH  022%=      5-min Rain = 0
KRO1 132108Z 11008KT 18/M05 A3027 RMK A01 T01781048  RH  021%=      5-min Rain = 0
KRO1 132109Z 06008KT 18/M05 A3027 RMK A01 T01771048  RH  021%=      5-min Rain = 0
KRO1 132110Z 04008KT 18/M05 A3027 RMK A01 T01791050  RH  021%=      5-min Rain = 0
KRO1 132111Z 01005KT 17/M05 A3027 RMK A01 T01731053  RH  021%=      5-min Rain = 0
KRO1 132112Z 05008G15KT 17/M05 A3027 RMK A01 T01701052  RH  021%=      5-min Rain = 0
KRO1 132113Z 05009KT 17/M05 A3027 RMK A01 T01721050  RH  021%=      5-min Rain = 0
KRO1 132114Z 06012KT 18/M05 A3026 RMK A01 T01751050  RH  021%=      5-min Rain = 0
KRO1 132115Z 05014KT 18/M05 A3026 RMK A01 T01801049  RH  021%=      5-min Rain = 0
KRO1 132116Z 05013KT 18/M05 A3026 RMK A01 T01781051  RH  020%=      5-min Rain = 0
KRO1 132117Z 05011KT 18/M05 A3026 RMK A01 T01751052  RH  021%=      5-min Rain = 0
KRO1 132118Z 06011KT 17/M05 A3026 RMK A01 T01731052  RH  021%=      5-min Rain = 0
KRO1 132119Z 07007KT 17/M05 A3027 RMK A01 T01711052  RH  021%=      5-min Rain = 0
KRO1 132120Z 07008KT 17/M05 A3026 RMK A01 T01711051  RH  022%=      5-min Rain = 0
KRO1 132121Z 08007KT 17/M05 A3026 RMK A01 T01711051  RH  022%=      5-min Rain = 0
KRO1 132122Z 07003KT 17/M05 A3026 RMK A01 T01701051  RH  022%=      5-min Rain = 0
KRO1 132123Z 09003KT 17/M05 A3026 RMK A01 T01701050  RH  022%=      5-min Rain = 0
KRO1 132124Z 06005KT 17/M05 A3026 RMK A01 T01721049  RH  022%=      5-min Rain = 0
KRO1 132125Z 05008KT 17/M05 A3026 RMK A01 T01741048  RH  022%=      5-min Rain = 0
KRO1 132126Z 05014KT 18/M05 A3026 RMK A01 T01761049  RH  021%=      5-min Rain = 0
KRO1 132127Z 07013KT 18/M05 A3026 RMK A01 T01811049  RH  021%=      5-min Rain = 0
KRO1 132128Z 08010KT 18/M05 A3026 RMK A01 T01811051  RH  020%=      5-min Rain = 0
KRO1 132129Z 09011KT 18/M05 A3026 RMK A01 T01771052  RH  021%=      5-min Rain = 0
KRO1 132130Z 07010KT 18/M05 A3026 RMK A01 T01761052  RH  021%=      5-min Rain = 0
KRO1 132131Z 09008KT 18/M05 A3026 RMK A01 T01751053  RH  021%=      5-min Rain = 0
KRO1 132132Z 08015KT 18/M05 A3026 RMK A01 T01751052  RH  021%=      5-min Rain = 0
KRO1 132133Z 07012KT 18/M05 A3026 RMK A01 T01751053  RH  021%=      5-min Rain = 0
KRO1 132134Z 07010KT 18/M05 A3026 RMK A01 T01751052  RH  021%=      5-min Rain = 0
KRO1 132135Z 08006KT 17/M05 A3026 RMK A01 T01741053  RH  021%=      5-min Rain = 0
KRO1 132136Z 09007KT 17/M05 A3026 RMK A01 T01741050  RH  021%=      5-min Rain = 0
KRO1 132137Z 10008KT 18/M05 A3026 RMK A01 T01791048  RH  021%=      5-min Rain = 0
KRO1 132138Z 10008KT 18/M05 A3026 RMK A01 T01771051  RH  021%=      5-min Rain = 0
KRO1 132139Z 08009KT 18/M05 A3026 RMK A01 T01751051  RH  021%=      5-min Rain = 0
KRO1 132140Z 07005KT 17/M05 A3026 RMK A01 T01731053  RH  021%=      5-min Rain = 0
KRO1 132141Z 07005KT 17/M05 A3026 RMK A01 T01711052  RH  021%=      5-min Rain = 0
KRO1 132142Z 07005KT 17/M05 A3026 RMK A01 T01711052  RH  021%=      5-min Rain = 0
KRO1 132143Z 07015KT 17/M05 A3026 RMK A01 T01741051  RH  021%=      5-min Rain = 0
KRO1 132144Z 05013KT 18/M05 A3026 RMK A01 T01761052  RH  021%=      5-min Rain = 0
KRO1 132145Z 04009KT 18/M05 A3026 RMK A01 T01761052  RH  021%=      5-min Rain = 0
KRO1 132146Z 05011KT 18/M05 A3025 RMK A01 T01761052  RH  021%=      5-min Rain = 0
KRO1 132147Z 07013KT 18/M05 A3026 RMK A01 T01781051  RH  021%=      5-min Rain = 0
KRO1 132148Z 06012KT 18/M05 A3026 RMK A01 T01761053  RH  021%=      5-min Rain = 0
KRO1 132149Z 06011KT 17/M05 A3026 RMK A01 T01731054  RH  021%=      5-min Rain = 0
KRO1 132150Z 06011KT 17/M05 A3026 RMK A01 T01721054  RH  021%=      5-min Rain = 0
KRO1 132151Z 06009KT 17/M05 A3026 RMK A01 T01721054  RH  021%=      5-min Rain = 0
KRO1 132152Z 08009KT 17/M05 A3026 RMK A01 T01731052  RH  021%=      5-min Rain = 0
KRO1 132153Z 08013KT 18/M05 A3025 RMK A01 T01751052  RH  021%=      5-min Rain = 0
KRO1 132154Z 08011KT 18/M05 A3026 RMK A01 T01751054  RH  020%=      5-min Rain = 0
KRO1 132155Z 08012KT 17/M05 A3026 RMK A01 T01731054  RH  021%=      5-min Rain = 0
KRO1 132156Z 08008KT 17/M05 A3026 RMK A01 T01721052  RH  021%=      5-min Rain = 0
KRO1 132157Z 09005KT 17/M05 A3026 RMK A01 T01721053  RH  021%=      5-min Rain = 0
KRO1 132158Z 08009G15KT 17/M05 A3026 RMK A01 T01711052  RH  021%=      5-min Rain = 0
KRO1 132159Z 10011KT 17/M05 A3025 RMK A01 T01731050  RH  021%=      5-min Rain = 0
KRO1 132200Z 09009KT 17/M05 A3026 RMK A01 T01741050  RH  021%=      5-min Rain = 0
KRO1 132201Z 08009KT 17/M05 A3026 RMK A01 T01741051  RH  021%=      5-min Rain = 0
KRO1 132202Z 08009KT 17/M05 A3026 RMK A01 T01741050  RH  021%=      5-min Rain = 0
KRO1 132203Z 08008KT 18/M05 A3026 RMK A01 T01761051  RH  021%=      5-min Rain = 0
KRO1 132204Z 06010KT 18/M05 A3026 RMK A01 T01751051  RH  021%=      5-min Rain = 0
KRO1 132205Z 05010KT 18/M05 A3026 RMK A01 T01771050  RH  021%=      5-min Rain = 0
KRO1 132206Z 04013KT 18/M05 A3025 RMK A01 T01771050  RH  021%=      5-min Rain = 0
KRO1 132207Z 04013KT 18/M05 A3025 RMK A01 T01771052  RH  021%=      5-min Rain = 0
KRO1 132208Z 04013KT 18/M05 A3025 RMK A01 T01751052  RH  021%=      5-min Rain = 0
KRO1 132209Z 07014KT 18/M05 A3025 RMK A01 T01771052  RH  021%=      5-min Rain = 0
KRO1 132210Z 08014KT 18/M06 A3025 RMK A01 T01791057  RH  020%=      5-min Rain = 0
KRO1 132211Z 08013KT 18/M06 A3026 RMK A01 T01781057  RH  020%=      5-min Rain = 0
KRO1 132212Z 08013KT 18/M06 A3025 RMK A01 T01781056  RH  020%=      5-min Rain = 0
KRO1 132213Z 08012KT 18/M06 A3026 RMK A01 T01771055  RH  020%=      5-min Rain = 0
KRO1 132214Z 08012KT 18/M05 A3025 RMK A01 T01761054  RH  020%=      5-min Rain = 0
KRO1 132215Z 08011KT 18/M06 A3026 RMK A01 T01751055  RH  020%=      5-min Rain = 0
KRO1 132216Z 08009KT 18/M06 A3025 RMK A01 T01751056  RH  020%=      5-min Rain = 0
KRO1 132217Z 06010KT 17/M06 A3025 RMK A01 T01731056  RH  020%=      5-min Rain = 0
KRO1 132218Z 06008KT 17/M06 A3025 RMK A01 T01701056  RH  021%=      5-min Rain = 0
KRO1 132219Z 07009KT 17/M05 A3025 RMK A01 T01711054  RH  021%=      5-min Rain = 0
KRO1 132220Z 07011KT 17/M05 A3025 RMK A01 T01721054  RH  021%=      5-min Rain = 0
KRO1 132221Z 07012KT 17/M06 A3025 RMK A01 T01731056  RH  020%=      5-min Rain = 0
KRO1 132222Z 06012KT 17/M06 A3025 RMK A01 T01731055  RH  021%=      5-min Rain = 0
KRO1 132223Z 07016KT 18/M06 A3025 RMK A01 T01751056  RH  020%=      5-min Rain = 0
KRO1 132224Z 07014KT 18/M06 A3025 RMK A01 T01761057  RH  020%=      5-min Rain = 0
KRO1 132225Z 07012KT 17/M06 A3025 RMK A01 T01731057  RH  020%=      5-min Rain = 0
KRO1 132226Z 07014KT 17/M06 A3025 RMK A01 T01721055  RH  021%=      5-min Rain = 0
KRO1 132227Z 08015KT 17/M06 A3025 RMK A01 T01741055  RH  020%=      5-min Rain = 0
KRO1 132228Z 08011KT 18/M06 A3025 RMK A01 T01771056  RH  020%=      5-min Rain = 0
KRO1 132229Z 08010KT 18/M06 A3025 RMK A01 T01751056  RH  020%=      5-min Rain = 0
KRO1 132230Z 07013KT 18/M06 A3025 RMK A01 T01751055  RH  020%=      5-min Rain = 0
KRO1 132231Z 06012KT 18/M05 A3025 RMK A01 T01771054  RH  020%=      5-min Rain = 0
KRO1 132232Z 05011KT 18/M05 A3025 RMK A01 T01771054  RH  020%=      5-min Rain = 0
KRO1 132233Z 05011KT 17/M06 A3025 RMK A01 T01741055  RH  020%=      5-min Rain = 0
KRO1 132234Z 04008KT 17/M06 A3025 RMK A01 T01721056  RH  021%=      5-min Rain = 0
KRO1 132235Z 05007KT 17/M06 A3025 RMK A01 T01711055  RH  021%=      5-min Rain = 0
KRO1 132236Z 06010G17KT 17/M05 A3025 RMK A01 T01701054  RH  021%=      5-min Rain = 0
KRO1 132237Z 08016KT 17/M05 A3025 RMK A01 T01721054  RH  021%=      5-min Rain = 0
KRO1 132238Z 08011KT 17/M05 A3025 RMK A01 T01731054  RH  021%=      5-min Rain = 0
KRO1 132239Z 08014KT 17/M05 A3025 RMK A01 T01741053  RH  021%=      5-min Rain = 0
KRO1 132240Z 07017KT 18/M05 A3024 RMK A01 T01771054  RH  020%=      5-min Rain = 0
KRO1 132241Z 07014KT 18/M06 A3025 RMK A01 T01761055  RH  020%=      5-min Rain = 0
KRO1 132242Z 07011KT 18/M06 A3025 RMK A01 T01761056  RH  020%=      5-min Rain = 0
KRO1 132243Z 07010KT 18/M06 A3025 RMK A01 T01751057  RH  020%=      5-min Rain = 0
KRO1 132244Z 07007KT 17/M06 A3025 RMK A01 T01711058  RH  020%=      5-min Rain = 0
KRO1 132245Z 07007KT 17/M06 A3025 RMK A01 T01701057  RH  021%=      5-min Rain = 0
KRO1 132246Z 06007KT 17/M06 A3024 RMK A01 T01711055  RH  021%=      5-min Rain = 0
KRO1 132247Z 04011KT 17/M06 A3024 RMK A01 T01711056  RH  021%=      5-min Rain = 0
KRO1 132248Z 05013KT 17/M05 A3024 RMK A01 T01711054  RH  021%=      5-min Rain = 0
KRO1 132249Z 04013KT 17/M06 A3024 RMK A01 T01711055  RH  021%=      5-min Rain = 0
KRO1 132250Z 05013KT 17/M05 A3024 RMK A01 T01731053  RH  021%=      5-min Rain = 0
KRO1 132251Z 07012KT 18/M05 A3024 RMK A01 T01761052  RH  021%=      5-min Rain = 0
KRO1 132252Z 07015KT 18/M05 A3024 RMK A01 T01771053  RH  020%=      5-min Rain = 0
KRO1 132253Z 06014KT 18/M06 A3024 RMK A01 T01761055  RH  020%=      5-min Rain = 0
KRO1 132254Z 04014KT 18/M05 A3024 RMK A01 T01761054  RH  020%=      5-min Rain = 0
KRO1 132255Z 04014KT 18/M05 A3024 RMK A01 T01781054  RH  020%=      5-min Rain = 0
KRO1 132256Z 04011KT 18/M06 A3024 RMK A01 T01761057  RH  020%=      5-min Rain = 0
KRO1 132257Z 04015KT 17/M06 A3024 RMK A01 T01741056  RH  020%=      5-min Rain = 0
KRO1 132258Z 04015KT 17/M06 A3024 RMK A01 T01731055  RH  021%=      5-min Rain = 0
KRO1 132259Z 04014KT 17/M06 A3024 RMK A01 T01731055  RH  021%=      5-min Rain = 0
KRO1 132300Z 05013KT 17/M06 A3025 RMK A01 T01741055  RH  021%=      5-min Rain = 0
KRO1 132301Z 06011KT 17/M06 A3025 RMK A01 T01721056  RH  021%=      5-min Rain = 0
KRO1 132302Z 08010KT 17/M06 A3025 RMK A01 T01711055  RH  021%=      5-min Rain = 0
KRO1 132303Z 08009KT 17/M06 A3025 RMK A01 T01711055  RH  021%=      5-min Rain = 0
KRO1 132304Z 07009KT 17/M06 A3025 RMK A01 T01701055  RH  021%=      5-min Rain = 0
KRO1 132305Z 06014KT 17/M05 A3025 RMK A01 T01721054  RH  021%=      5-min Rain = 0
KRO1 132306Z 07012KT 17/M06 A3025 RMK A01 T01731055  RH  021%=      5-min Rain = 0
KRO1 132307Z 07009KT 17/M06 A3025 RMK A01 T01711056  RH  021%=      5-min Rain = 0
KRO1 132308Z 06010KT 17/M06 A3025 RMK A01 T01701055  RH  021%=      5-min Rain = 0
KRO1 132309Z 07011KT 17/M06 A3025 RMK A01 T01721055  RH  021%=      5-min Rain = 0
KRO1 132310Z 08012KT 17/M06 A3025 RMK A01 T01731055  RH  021%=      5-min Rain = 0
KRO1 132311Z 08013KT 17/M06 A3025 RMK A01 T01721056  RH  021%=      5-min Rain = 0
KRO1 132312Z 06010KT 17/M06 A3025 RMK A01 T01721056  RH  021%=      5-min Rain = 0
KRO1 132313Z 06012KT 17/M06 A3025 RMK A01 T01701056  RH  021%=      5-min Rain = 0
KRO1 132314Z 06011KT 17/M06 A3025 RMK A01 T01691056  RH  021%=      5-min Rain = 0
KRO1 132315Z 07014KT 17/M06 A3025 RMK A01 T01681056  RH  021%=      5-min Rain = 0
KRO1 132316Z 08014KT 17/M06 A3025 RMK A01 T01691055  RH  021%=      5-min Rain = 0
KRO1 132317Z 08012KT 17/M06 A3025 RMK A01 T01691056  RH  021%=      5-min Rain = 0
KRO1 132318Z 08012KT 17/M06 A3025 RMK A01 T01681056  RH  021%=      5-min Rain = 0
KRO1 132319Z 08011KT 17/M06 A3025 RMK A01 T01691056  RH  021%=      5-min Rain = 0
KRO1 132320Z 08012KT 17/M06 A3025 RMK A01 T01691057  RH  021%=      5-min Rain = 0
KRO1 132321Z 07011KT 17/M06 A3025 RMK A01 T01691057  RH  021%=      5-min Rain = 0
KRO1 132322Z 08011KT 17/M06 A3025 RMK A01 T01681056  RH  021%=      5-min Rain = 0
KRO1 132323Z 08011KT 17/M06 A3025 RMK A01 T01671057  RH  021%=      5-min Rain = 0
KRO1 132324Z 07012KT 17/M06 A3025 RMK A01 T01671056  RH  021%=      5-min Rain = 0
KRO1 132325Z 07013KT 17/M06 A3025 RMK A01 T01691055  RH  021%=      5-min Rain = 0
KRO1 132326Z 07015KT 17/M06 A3025 RMK A01 T01701057  RH  021%=      5-min Rain = 0
KRO1 132327Z 06011KT 17/M06 A3025 RMK A01 T01691058  RH  021%=      5-min Rain = 0
KRO1 132328Z 06012KT 17/M06 A3025 RMK A01 T01681058  RH  021%=      5-min Rain = 0
KRO1 132329Z 06012KT 17/M06 A3025 RMK A01 T01671058  RH  021%=      5-min Rain = 0
KRO1 132330Z 06011KT 17/M06 A3025 RMK A01 T01681058  RH  021%=      5-min Rain = 0
KRO1 132331Z 06012KT 17/M06 A3025 RMK A01 T01681057  RH  021%=      5-min Rain = 0
KRO1 132332Z 06012KT 17/M06 A3025 RMK A01 T01681055  RH  021%=      5-min Rain = 0
KRO1 132333Z 06011KT 17/M06 A3025 RMK A01 T01661055  RH  021%=      5-min Rain = 0
KRO1 132334Z 07013KT 17/M05 A3025 RMK A01 T01691054  RH  021%=      5-min Rain = 0
KRO1 132335Z 05011KT 17/M05 A3025 RMK A01 T01711054  RH  021%=      5-min Rain = 0
KRO1 132336Z 06014KT 17/M06 A3025 RMK A01 T01721055  RH  021%=      5-min Rain = 0
KRO1 132337Z 07015KT 17/M06 A3025 RMK A01 T01701056  RH  021%=      5-min Rain = 0
KRO1 132338Z 06014KT 17/M06 A3025 RMK A01 T01681057  RH  021%=      5-min Rain = 0
KRO1 132339Z 06015KT 17/M06 A3025 RMK A01 T01681057  RH  021%=      5-min Rain = 0
KRO1 132340Z 06015KT 17/M06 A3025 RMK A01 T01671057  RH  021%=      5-min Rain = 0
KRO1 132341Z 06014KT 17/M06 A3025 RMK A01 T01671057  RH  021%=      5-min Rain = 0
KRO1 132342Z 05013KT 17/M06 A3025 RMK A01 T01661058  RH  021%=      5-min Rain = 0
KRO1 132343Z 05011KT 17/M06 A3025 RMK A01 T01651057  RH  021%=      5-min Rain = 0
KRO1 132344Z 06010KT 17/M06 A3025 RMK A01 T01651057  RH  021%=      5-min Rain = 0
KRO1 132345Z 07011KT 17/M06 A3025 RMK A01 T01651056  RH  021%=      5-min Rain = 0
KRO1 132346Z 05013KT 17/M06 A3025 RMK A01 T01671055  RH  021%=      5-min Rain = 0
KRO1 132347Z 06013KT 17/M06 A3025 RMK A01 T01661056  RH  021%=      5-min Rain = 0
KRO1 132348Z 07011KT 17/M06 A3025 RMK A01 T01671056  RH  021%=      5-min Rain = 0
KRO1 132349Z 08012KT 17/M06 A3025 RMK A01 T01661057  RH  021%=      5-min Rain = 0
KRO1 132350Z 07012KT 17/M06 A3025 RMK A01 T01651057  RH  021%=      5-min Rain = 0
KRO1 132351Z 06012KT 16/M06 A3025 RMK A01 T01641056  RH  022%=      5-min Rain = 0
KRO1 132352Z 08011KT 16/M06 A3025 RMK A01 T01641056  RH  022%=      5-min Rain = 0
KRO1 132353Z 07012KT 16/M06 A3025 RMK A01 T01631056  RH  022%=      5-min Rain = 0
KRO1 132354Z 07012KT 16/M06 A3025 RMK A01 T01631055  RH  022%=      5-min Rain = 0
KRO1 132355Z 07012KT 16/M05 A3025 RMK A01 T01631054  RH  022%=      5-min Rain = 0
KRO1 132356Z 08013KT 16/M06 A3025 RMK A01 T01621055  RH  022%=      5-min Rain = 0
KRO1 132357Z 07015KT 16/M05 A3025 RMK A01 T01621054  RH  022%=      5-min Rain = 0
KRO1 132358Z 07012KT 16/M06 A3025 RMK A01 T01611055  RH  022%=      5-min Rain = 0
KRO1 132359Z 07013KT 16/M06 A3025 RMK A01 T01621056  RH  022%=      5-min Rain = 0
KRO1 140000Z 07014KT 16/M06 A3025 RMK A01 T01621056  RH  022%=      5-min Rain = 0
KRO1 140001Z 07014KT 16/M06 A3025 RMK A01 T01621056  RH  022%=      5-min Rain = 0
KRO1 140002Z 07012KT 16/M06 A3025 RMK A01 T01611056  RH  022%=      5-min Rain = 0
KRO1 140003Z 06012KT 16/M06 A3025 RMK A01 T01601056  RH  022%=      5-min Rain = 0
KRO1 140004Z 05012KT 16/M06 A3025 RMK A01 T01611056  RH  022%=      5-min Rain = 0
KRO1 140005Z 05012KT 16/M06 A3025 RMK A01 T01611056  RH  022%=      5-min Rain = 0
KRO1 140006Z 06012KT 16/M06 A3025 RMK A01 T01601056  RH  022%=      5-min Rain = 0
KRO1 140007Z 06014KT 16/M06 A3025 RMK A01 T01601056  RH  022%=      5-min Rain = 0
KRO1 140008Z 06014KT 16/M06 A3025 RMK A01 T01591055  RH  022%=      5-min Rain = 0
KRO1 140009Z 07014KT 16/M06 A3025 RMK A01 T01591055  RH  022%=      5-min Rain = 0
KRO1 140010Z 07014KT 16/M06 A3025 RMK A01 T01591055  RH  023%=      5-min Rain = 0
KRO1 140011Z 07015KT 16/M06 A3025 RMK A01 T01591055  RH  023%=      5-min Rain = 0
KRO1 140012Z 06013KT 16/M06 A3025 RMK A01 T01581055  RH  023%=      5-min Rain = 0
KRO1 140013Z 06013KT 16/M06 A3025 RMK A01 T01581055  RH  023%=      5-min Rain = 0
KRO1 140014Z 07014KT 16/M06 A3025 RMK A01 T01581055  RH  023%=      5-min Rain = 0
KRO1 140015Z 06013KT 16/M05 A3025 RMK A01 T01571054  RH  023%=      5-min Rain = 0
KRO1 140016Z 06012KT 16/M05 A3025 RMK A01 T01571053  RH  023%=      5-min Rain = 0
KRO1 140017Z 06012KT 16/M05 A3025 RMK A01 T01561054  RH  023%=      5-min Rain = 0
KRO1 140018Z 06011KT 16/M05 A3026 RMK A01 T01571054  RH  023%=      5-min Rain = 0
KRO1 140019Z 06011KT 16/M05 A3026 RMK A01 T01561054  RH  023%=      5-min Rain = 0
KRO1 140020Z 07012KT 16/M05 A3026 RMK A01 T01561053  RH  023%=      5-min Rain = 0
KRO1 140021Z 07013KT 16/M05 A3026 RMK A01 T01561052  RH  023%=      5-min Rain = 0
KRO1 140022Z 07014KT 16/M05 A3026 RMK A01 T01551052  RH  024%=      5-min Rain = 0
KRO1 140023Z 06014KT 16/M05 A3026 RMK A01 T01551052  RH  024%=      5-min Rain = 0
KRO1 140024Z 06013KT 15/M05 A3026 RMK A01 T01541052  RH  024%=      5-min Rain = 0
KRO1 140025Z 07013KT 15/M05 A3026 RMK A01 T01541052  RH  024%=      5-min Rain = 0
KRO1 140026Z 07012KT 15/M05 A3026 RMK A01 T01541052  RH  024%=      5-min Rain = 0
KRO1 140027Z 07012KT 15/M05 A3026 RMK A01 T01531052  RH  024%=      5-min Rain = 0
KRO1 140028Z 07012KT 15/M05 A3026 RMK A01 T01531052  RH  024%=      5-min Rain = 0
KRO1 140029Z 07010KT 15/M05 A3026 RMK A01 T01521052  RH  024%=      5-min Rain = 0
KRO1 140030Z 06012KT 15/M05 A3027 RMK A01 T01521053  RH  024%=      5-min Rain = 0
KRO1 140031Z 07012KT 15/M05 A3026 RMK A01 T01521052  RH  024%=      5-min Rain = 0
KRO1 140032Z 07012KT 15/M05 A3026 RMK A01 T01511052  RH  024%=      5-min Rain = 0
KRO1 140033Z 07012KT 15/M05 A3026 RMK A01 T01511052  RH  024%=      5-min Rain = 0
KRO1 140034Z 07011KT 15/M05 A3026 RMK A01 T01501051  RH  024%=      5-min Rain = 0
KRO1 140035Z 07011KT 15/M05 A3027 RMK A01 T01501052  RH  024%=      5-min Rain = 0
KRO1 140036Z 07011KT 15/M05 A3027 RMK A01 T01491053  RH  024%=      5-min Rain = 0
KRO1 140037Z 06012KT 15/M05 A3026 RMK A01 T01481053  RH  025%=      5-min Rain = 0
KRO1 140038Z 07012KT 15/M05 A3026 RMK A01 T01481052  RH  025%=      5-min Rain = 0
KRO1 140039Z 07010KT 15/M05 A3026 RMK A01 T01471052  RH  025%=      5-min Rain = 0
KRO1 140040Z 07012KT 15/M05 A3026 RMK A01 T01471053  RH  025%=      5-min Rain = 0
KRO1 140041Z 06011KT 15/M05 A3026 RMK A01 T01461053  RH  025%=      5-min Rain = 0
KRO1 140042Z 06011KT 15/M05 A3026 RMK A01 T01451053  RH  025%=      5-min Rain = 0
KRO1 140043Z 06010KT 15/M05 A3026 RMK A01 T01451053  RH  025%=      5-min Rain = 0
KRO1 140044Z 06010KT 14/M06 A3026 RMK A01 T01441055  RH  025%=      5-min Rain = 0
KRO1 140045Z 06011KT 14/M05 A3026 RMK A01 T01431054  RH  025%=      5-min Rain = 0
KRO1 140046Z 06012KT 14/M05 A3026 RMK A01 T01431053  RH  025%=      5-min Rain = 0
KRO1 140047Z 06011KT 14/M05 A3027 RMK A01 T01431052  RH  025%=      5-min Rain = 0
KRO1 140048Z 06010KT 14/M05 A3027 RMK A01 T01421053  RH  025%=      5-min Rain = 0
KRO1 140049Z 06009KT 14/M05 A3027 RMK A01 T01421053  RH  025%=      5-min Rain = 0
KRO1 140050Z 06009KT 14/M05 A3027 RMK A01 T01411053  RH  026%=      5-min Rain = 0
KRO1 140051Z 06009KT 14/M05 A3027 RMK A01 T01401054  RH  026%=      5-min Rain = 0
KRO1 140052Z 06010KT 14/M05 A3027 RMK A01 T01391054  RH  026%=      5-min Rain = 0
KRO1 140053Z 06010KT 14/M05 A3027 RMK A01 T01391054  RH  026%=      5-min Rain = 0
KRO1 140054Z 06011KT 14/M05 A3027 RMK A01 T01381054  RH  026%=      5-min Rain = 0
KRO1 140055Z 06011KT 14/M05 A3027 RMK A01 T01381053  RH  026%=      5-min Rain = 0
KRO1 140056Z 06011KT 14/M05 A3027 RMK A01 T01381053  RH  026%=      5-min Rain = 0
KRO1 140057Z 06011KT 14/M05 A3027 RMK A01 T01371053  RH  026%=      5-min Rain = 0
KRO1 140058Z 06010KT 14/M05 A3027 RMK A01 T01371053  RH  026%=      5-min Rain = 0
KRO1 140059Z 06011KT 14/M05 A3027 RMK A01 T01361053  RH  026%=      5-min Rain = 0
KRO1 140100Z 06011KT 14/M05 A3027 RMK A01 T01361053  RH  027%=      5-min Rain = 0
KRO1 140101Z 06011KT 14/M05 A3027 RMK A01 T01351053  RH  027%=      5-min Rain = 0
KRO1 140102Z 06010KT 14/M05 A3027 RMK A01 T01351053  RH  027%=      5-min Rain = 0
KRO1 140103Z 06010KT 14/M05 A3027 RMK A01 T01351053  RH  027%=      5-min Rain = 0
KRO1 140104Z 06010KT 13/M05 A3027 RMK A01 T01341053  RH  027%=      5-min Rain = 0
KRO1 140105Z 06010KT 13/M05 A3027 RMK A01 T01331054  RH  027%=      5-min Rain = 0
KRO1 140106Z 06010KT 13/M05 A3028 RMK A01 T01321054  RH  027%=      5-min Rain = 0
KRO1 140107Z 06010KT 13/M05 A3028 RMK A01 T01321053  RH  027%=      5-min Rain = 0
KRO1 140108Z 06010KT 13/M05 A3028 RMK A01 T01311054  RH  027%=      5-min Rain = 0
KRO1 140109Z 06009KT 13/M05 A3028 RMK A01 T01311054  RH  027%=      5-min Rain = 0
KRO1 140110Z 06009KT 13/M05 A3028 RMK A01 T01301054  RH  027%=      5-min Rain = 0
KRO1 140111Z 06009KT 13/M05 A3028 RMK A01 T01301054  RH  027%=      5-min Rain = 0
KRO1 140112Z 06008KT 13/M05 A3028 RMK A01 T01291054  RH  027%=      5-min Rain = 0
KRO1 140113Z 06008KT 13/M06 A3028 RMK A01 T01291055  RH  027%=      5-min Rain = 0
KRO1 140114Z 06008KT 13/M06 A3028 RMK A01 T01281055  RH  027%=      5-min Rain = 0
KRO1 140115Z 06008KT 13/M06 A3028 RMK A01 T01281055  RH  028%=      5-min Rain = 0
KRO1 140116Z 06008KT 13/M06 A3028 RMK A01 T01271055  RH  028%=      5-min Rain = 0
KRO1 140117Z 06008KT 13/M06 A3028 RMK A01 T01261055  RH  028%=      5-min Rain = 0
KRO1 140118Z 06008KT 13/M06 A3028 RMK A01 T01251056  RH  028%=      5-min Rain = 0
KRO1 140119Z 06008KT 12/M06 A3028 RMK A01 T01241057  RH  028%=      5-min Rain = 0
KRO1 140120Z 06008KT 12/M06 A3028 RMK A01 T01231057  RH  028%=      5-min Rain = 0
KRO1 140121Z 06008KT 12/M06 A3028 RMK A01 T01231056  RH  028%=      5-min Rain = 0
KRO1 140122Z 06008KT 12/M06 A3028 RMK A01 T01221056  RH  028%=      5-min Rain = 0
KRO1 140123Z 06008KT 12/M06 A3028 RMK A01 T01221056  RH  028%=      5-min Rain = 0
KRO1 140124Z 06008KT 12/M06 A3028 RMK A01 T01211057  RH  028%=      5-min Rain = 0
KRO1 140125Z 06008KT 12/M06 A3028 RMK A01 T01211057  RH  028%=      5-min Rain = 0
KRO1 140126Z 06008KT 12/M06 A3028 RMK A01 T01211057  RH  028%=      5-min Rain = 0
KRO1 140127Z 06008KT 12/M06 A3028 RMK A01 T01201058  RH  028%=      5-min Rain = 0
KRO1 140128Z 06008KT 12/M06 A3028 RMK A01 T01191058  RH  028%=      5-min Rain = 0
KRO1 140129Z 06007KT 12/M06 A3028 RMK A01 T01191058  RH  029%=      5-min Rain = 0
KRO1 140130Z 06007KT 12/M06 A3028 RMK A01 T01181059  RH  029%=      5-min Rain = 0
KRO1 140131Z 06007KT 12/M06 A3028 RMK A01 T01171060  RH  029%=      5-min Rain = 0
KRO1 140132Z 06007KT 12/M06 A3028 RMK A01 T01161060  RH  029%=      5-min Rain = 0
KRO1 140133Z 06007KT 12/M06 A3028 RMK A01 T01161059  RH  029%=      5-min Rain = 0
KRO1 140134Z 06007KT 12/M06 A3028 RMK A01 T01151060  RH  029%=      5-min Rain = 0
KRO1 140135Z 06008KT 11/M06 A3028 RMK A01 T01141060  RH  029%=      5-min Rain = 0
KRO1 140136Z 06008KT 11/M06 A3028 RMK A01 T01141060  RH  029%=      5-min Rain = 0
KRO1 140137Z 06007KT 11/M06 A3029 RMK A01 T01141059  RH  029%=      5-min Rain = 0
KRO1 140138Z 06007KT 11/M06 A3029 RMK A01 T01131059  RH  029%=      5-min Rain = 0
KRO1 140139Z 06007KT 11/M06 A3029 RMK A01 T01131059  RH  029%=      5-min Rain = 0
KRO1 140140Z 06007KT 11/M06 A3029 RMK A01 T01131059  RH  029%=      5-min Rain = 0
KRO1 140141Z 06007KT 11/M06 A3029 RMK A01 T01131059  RH  030%=      5-min Rain = 0
KRO1 140142Z 06007KT 11/M06 A3029 RMK A01 T01121059  RH  030%=      5-min Rain = 0
KRO1 140143Z 06007KT 11/M06 A3029 RMK A01 T01121060  RH  030%=      5-min Rain = 0
KRO1 140144Z 06007KT 11/M06 A3029 RMK A01 T01111060  RH  030%=      5-min Rain = 0
KRO1 140145Z 06007KT 11/M06 A3029 RMK A01 T01111060  RH  030%=      5-min Rain = 0
KRO1 140146Z 06007KT 11/M06 A3029 RMK A01 T01101060  RH  030%=      5-min Rain = 0
KRO1 140147Z 06007KT 11/M06 A3029 RMK A01 T01091061  RH  030%=      5-min Rain = 0
KRO1 140148Z 06007KT 11/M06 A3029 RMK A01 T01091061  RH  030%=      5-min Rain = 0
KRO1 140149Z 06007KT 11/M06 A3029 RMK A01 T01081061  RH  030%=      5-min Rain = 0
KRO1 140150Z 06007KT 11/M06 A3029 RMK A01 T01081061  RH  030%=      5-min Rain = 0
KRO1 140151Z 06007KT 11/M06 A3029 RMK A01 T01071061  RH  030%=      5-min Rain = 0
KRO1 140152Z 06007KT 11/M06 A3029 RMK A01 T01061061  RH  030%=      5-min Rain = 0
KRO1 140153Z 07007KT 11/M06 A3029 RMK A01 T01061062  RH  030%=      5-min Rain = 0
KRO1 140154Z 07007KT 11/M06 A303 RMK A01 T01051062  RH  030%=      5-min Rain = 0
KRO1 140155Z 07006KT 11/M06 A303 RMK A01 T01051062  RH  030%=      5-min Rain = 0
KRO1 140156Z 07006KT 10/M06 A303 RMK A01 T01041062  RH  031%=      5-min Rain = 0
KRO1 140157Z 07006KT 10/M06 A303 RMK A01 T01031062  RH  031%=      5-min Rain = 0
KRO1 140158Z 07006KT 10/M06 A303 RMK A01 T01021063  RH  031%=      5-min Rain = 0
KRO1 140159Z 07006KT 10/M06 A303 RMK A01 T01021063  RH  031%=      5-min Rain = 0
KRO1 140200Z 07006KT 10/M06 A303 RMK A01 T01011064  RH  031%=      5-min Rain = 0
KRO1 140201Z 07006KT 10/M06 A303 RMK A01 T01011063  RH  031%=      5-min Rain = 0
KRO1 140202Z 07006KT 10/M06 A303 RMK A01 T01001063  RH  031%=      5-min Rain = 0
KRO1 140203Z 07006KT 10/M06 A303 RMK A01 T01001063  RH  031%=      5-min Rain = 0
KRO1 140204Z 07006KT 10/M06 A303 RMK A01 T00991064  RH  031%=      5-min Rain = 0
KRO1 140205Z 07006KT 10/M06 A303 RMK A01 T00991063  RH  031%=      5-min Rain = 0
KRO1 140206Z 07006KT 10/M06 A303 RMK A01 T00991063  RH  031%=      5-min Rain = 0
KRO1 140207Z 07006KT 10/M06 A303 RMK A01 T00981063  RH  031%=      5-min Rain = 0
KRO1 140208Z 07006KT 10/M06 A303 RMK A01 T00981063  RH  032%=      5-min Rain = 0
KRO1 140209Z 07006KT 10/M06 A303 RMK A01 T00981063  RH  032%=      5-min Rain = 0
KRO1 140210Z 07006KT 10/M06 A303 RMK A01 T00971063  RH  032%=      5-min Rain = 0
KRO1 140211Z 07006KT 10/M06 A303 RMK A01 T00971063  RH  032%=      5-min Rain = 0
KRO1 140212Z 07006KT 10/M06 A303 RMK A01 T00961064  RH  032%=      5-min Rain = 0
KRO1 140213Z 07006KT 10/M06 A303 RMK A01 T00961064  RH  032%=      5-min Rain = 0
KRO1 140214Z 07006KT 10/M06 A303 RMK A01 T00961063  RH  032%=      5-min Rain = 0
KRO1 140215Z 07006KT 10/M06 A303 RMK A01 T00961063  RH  032%=      5-min Rain = 0
KRO1 140216Z 07007KT 10/M06 A303 RMK A01 T00951063  RH  032%=      5-min Rain = 0
KRO1 140217Z 07006KT 10/M06 A303 RMK A01 T00951063  RH  032%=      5-min Rain = 0
KRO1 140218Z 07006KT 10/M06 A303 RMK A01 T00961062  RH  032%=      5-min Rain = 0
KRO1 140219Z 07006KT 10/M06 A303 RMK A01 T00961063  RH  032%=      5-min Rain = 0
KRO1 140220Z 07006KT 10/M06 A303 RMK A01 T00951063  RH  032%=      5-min Rain = 0
KRO1 140221Z 07006KT 10/M06 A303 RMK A01 T00951064  RH  032%=      5-min Rain = 0
KRO1 140222Z 07006KT 09/M06 A303 RMK A01 T00941064  RH  032%=      5-min Rain = 0
KRO1 140223Z 07006KT 09/M06 A303 RMK A01 T00941064  RH  032%=      5-min Rain = 0
KRO1 140224Z 07006KT 09/M07 A303 RMK A01 T00931065  RH  032%=      5-min Rain = 0
KRO1 140225Z 07006KT 09/M06 A303 RMK A01 T00931064  RH  032%=      5-min Rain = 0
KRO1 140226Z 07006KT 09/M06 A303 RMK A01 T00931064  RH  033%=      5-min Rain = 0
KRO1 140227Z 07006KT 09/M06 A3031 RMK A01 T00921064  RH  033%=      5-min Rain = 0
KRO1 140228Z 07006KT 09/M06 A3031 RMK A01 T00921063  RH  033%=      5-min Rain = 0
KRO1 140229Z 07007KT 09/M06 A3031 RMK A01 T00921063  RH  033%=      5-min Rain = 0
KRO1 140230Z 07006KT 09/M06 A3031 RMK A01 T00921063  RH  033%=      5-min Rain = 0
KRO1 140231Z 07006KT 09/M06 A3031 RMK A01 T00921063  RH  033%=      5-min Rain = 0
KRO1 140232Z 07006KT 09/M06 A3031 RMK A01 T00911064  RH  033%=      5-min Rain = 0
KRO1 140233Z 07005KT 09/M06 A3031 RMK A01 T00901064  RH  033%=      5-min Rain = 0
KRO1 140234Z 08006KT 09/M06 A3031 RMK A01 T00911064  RH  033%=      5-min Rain = 0
KRO1 140235Z 07006KT 09/M06 A3031 RMK A01 T00901063  RH  033%=      5-min Rain = 0
KRO1 140236Z 07005KT 09/M06 A3031 RMK A01 T00901064  RH  033%=      5-min Rain = 0
KRO1 140237Z 07006KT 09/M06 A3031 RMK A01 T00901063  RH  033%=      5-min Rain = 0
KRO1 140238Z 07006KT 09/M06 A3031 RMK A01 T00901063  RH  033%=      5-min Rain = 0
KRO1 140239Z 07006KT 09/M06 A3031 RMK A01 T00901063  RH  033%=      5-min Rain = 0
KRO1 140240Z 07006KT 09/M06 A3031 RMK A01 T00891064  RH  033%=      5-min Rain = 0
KRO1 140241Z 07006KT 09/M06 A3031 RMK A01 T00891064  RH  033%=      5-min Rain = 0
KRO1 140242Z 07006KT 09/M06 A3031 RMK A01 T00891064  RH  033%=      5-min Rain = 0
KRO1 140243Z 07006KT 09/M06 A3031 RMK A01 T00891063  RH  033%=      5-min Rain = 0
KRO1 140244Z 07006KT 09/M06 A3031 RMK A01 T00891063  RH  033%=      5-min Rain = 0
KRO1 140245Z 07006KT 09/M06 A3031 RMK A01 T00891064  RH  033%=      5-min Rain = 0
KRO1 140246Z 07006KT 09/M06 A3031 RMK A01 T00881064  RH  034%=      5-min Rain = 0
KRO1 140247Z 07006KT 09/M06 A3031 RMK A01 T00881064  RH  033%=      5-min Rain = 0
KRO1 140248Z 07006KT 09/M06 A3031 RMK A01 T00881064  RH  034%=      5-min Rain = 0
KRO1 140249Z 07006KT 09/M06 A3031 RMK A01 T00881063  RH  034%=      5-min Rain = 0
KRO1 140250Z 07006KT 09/M06 A3031 RMK A01 T00881064  RH  034%=      5-min Rain = 0
KRO1 140251Z 07007KT 09/M06 A3031 RMK A01 T00871064  RH  034%=      5-min Rain = 0
KRO1 140252Z 07007KT 09/M06 A3031 RMK A01 T00871063  RH  034%=      5-min Rain = 0
KRO1 140253Z 07007KT 09/M06 A3031 RMK A01 T00871063  RH  034%=      5-min Rain = 0
KRO1 140254Z 07007KT 09/M06 A3031 RMK A01 T00871063  RH  034%=      5-min Rain = 0
KRO1 140255Z 07007KT 09/M06 A3031 RMK A01 T00871064  RH  034%=      5-min Rain = 0
KRO1 140256Z 07008KT 09/M06 A3031 RMK A01 T00861063  RH  034%=      5-min Rain = 0
KRO1 140257Z 07008KT 09/M06 A3031 RMK A01 T00871063  RH  034%=      5-min Rain = 0
KRO1 140258Z 07008KT 09/M06 A3031 RMK A01 T00861063  RH  034%=      5-min Rain = 0
KRO1 140259Z 07008KT 09/M06 A3031 RMK A01 T00861063  RH  034%=      5-min Rain = 0
KRO1 140300Z 07008KT 09/M06 A3031 RMK A01 T00861063  RH  034%=      5-min Rain = 0
KRO1 140301Z 07008KT 09/M06 A3031 RMK A01 T00861063  RH  034%=      5-min Rain = 0
KRO1 140302Z 07007KT 09/M06 A3031 RMK A01 T00861063  RH  034%=      5-min Rain = 0
KRO1 140303Z 07007KT 09/M06 A3031 RMK A01 T00861063  RH  034%=      5-min Rain = 0
KRO1 140304Z 07007KT 09/M06 A3031 RMK A01 T00861063  RH  034%=      5-min Rain = 0
KRO1 140305Z 07007KT 09/M06 A3031 RMK A01 T00861063  RH  034%=      5-min Rain = 0
KRO1 140306Z 07007KT 09/M06 A3031 RMK A01 T00851063  RH  034%=      5-min Rain = 0
KRO1 140307Z 08006KT 09/M06 A3031 RMK A01 T00851063  RH  034%=      5-min Rain = 0
KRO1 140308Z 08006KT 09/M06 A3031 RMK A01 T00851063  RH  034%=      5-min Rain = 0
KRO1 140309Z 08007KT 08/M06 A3031 RMK A01 T00841064  RH  034%=      5-min Rain = 0
KRO1 140310Z 08007KT 08/M06 A3031 RMK A01 T00841063  RH  035%=      5-min Rain = 0
KRO1 140311Z 08007KT 09/M06 A3031 RMK A01 T00851062  RH  035%=      5-min Rain = 0
KRO1 140312Z 08008KT 09/M06 A3031 RMK A01 T00851062  RH  035%=      5-min Rain = 0
KRO1 140313Z 08008KT 09/M06 A3031 RMK A01 T00861060  RH  035%=      5-min Rain = 0
KRO1 140314Z 08007KT 09/M06 A3031 RMK A01 T00871059  RH  035%=      5-min Rain = 0
KRO1 140315Z 08007KT 09/M06 A3031 RMK A01 T00881058  RH  035%=      5-min Rain = 0
KRO1 140316Z 08007KT 09/M06 A3031 RMK A01 T00891058  RH  035%=      5-min Rain = 0
KRO1 140317Z 08007KT 09/M06 A3031 RMK A01 T00901057  RH  035%=      5-min Rain = 0
KRO1 140318Z 08007KT 09/M06 A3031 RMK A01 T00901057  RH  035%=      5-min Rain = 0
KRO1 140319Z 08007KT 09/M06 A3031 RMK A01 T00911057  RH  035%=      5-min Rain = 0
KRO1 140320Z 08007KT 09/M06 A3031 RMK A01 T00911057  RH  034%=      5-min Rain = 0
KRO1 140321Z 08007KT 09/M06 A3031 RMK A01 T00901058  RH  034%=      5-min Rain = 0
KRO1 140322Z 08007KT 09/M06 A3031 RMK A01 T00901057  RH  035%=      5-min Rain = 0
KRO1 140323Z 08007KT 09/M06 A3031 RMK A01 T00911057  RH  035%=      5-min Rain = 0
KRO1 140324Z 08007KT 09/M06 A3031 RMK A01 T00901057  RH  035%=      5-min Rain = 0
KRO1 140325Z 08007KT 09/M06 A3031 RMK A01 T00911057  RH  035%=      5-min Rain = 0
KRO1 140326Z 08008KT 09/M06 A3031 RMK A01 T00911057  RH  035%=      5-min Rain = 0
KRO1 140327Z 08007KT 09/M06 A3031 RMK A01 T00901057  RH  035%=      5-min Rain = 0
KRO1 140328Z 08007KT 09/M06 A3031 RMK A01 T00901056  RH  035%=      5-min Rain = 0
KRO1 140329Z 08007KT 09/M06 A3031 RMK A01 T00901056  RH  035%=      5-min Rain = 0
KRO1 140330Z 08008KT 09/M06 A3031 RMK A01 T00891057  RH  035%=      5-min Rain = 0
KRO1 140331Z 08007KT 09/M06 A3031 RMK A01 T00901056  RH  035%=      5-min Rain = 0
KRO1 140332Z 08008KT 09/M06 A3031 RMK A01 T00891056  RH  035%=      5-min Rain = 0
KRO1 140333Z 08007KT 09/M06 A3031 RMK A01 T00891055  RH  035%=      5-min Rain = 0
KRO1 140334Z 09007KT 09/M06 A3031 RMK A01 T00891056  RH  035%=      5-min Rain = 0
KRO1 140335Z 09007KT 09/M06 A3032 RMK A01 T00881056  RH  036%=      5-min Rain = 0
KRO1 140336Z 08007KT 09/M06 A3032 RMK A01 T00881056  RH  036%=      5-min Rain = 0
KRO1 140337Z 09007KT 09/M06 A3032 RMK A01 T00881055  RH  036%=      5-min Rain = 0
KRO1 140338Z 09007KT 09/M06 A3032 RMK A01 T00881055  RH  036%=      5-min Rain = 0
KRO1 140339Z 09006KT 09/M06 A3032 RMK A01 T00881055  RH  036%=      5-min Rain = 0
KRO1 140340Z 09007KT 09/M06 A3032 RMK A01 T00881055  RH  036%=      5-min Rain = 0
KRO1 140341Z 09006KT 09/M06 A3032 RMK A01 T00871055  RH  036%=      5-min Rain = 0
KRO1 140342Z 08006KT 09/M06 A3032 RMK A01 T00871055  RH  036%=      5-min Rain = 0
KRO1 140343Z 09006KT 09/M06 A3032 RMK A01 T00871055  RH  036%=      5-min Rain = 0
KRO1 140344Z 09006KT 09/M05 A3032 RMK A01 T00871054  RH  036%=      5-min Rain = 0
KRO1 140345Z 09007KT 09/M05 A3032 RMK A01 T00871054  RH  036%=      5-min Rain = 0
KRO1 140346Z 09006KT 09/M05 A3032 RMK A01 T00871054  RH  036%=      5-min Rain = 0
KRO1 140347Z 09006KT 09/M05 A3032 RMK A01 T00871054  RH  036%=      5-min Rain = 0
KRO1 140348Z 08006KT 09/M06 A3032 RMK A01 T00861055  RH  036%=      5-min Rain = 0
KRO1 140349Z 09006KT 09/M06 A3032 RMK A01 T00851055  RH  036%=      5-min Rain = 0
KRO1 140350Z 09006KT 09/M06 A3032 RMK A01 T00851055  RH  037%=      5-min Rain = 0
KRO1 140351Z 08006KT 08/M06 A3032 RMK A01 T00841055  RH  037%=      5-min Rain = 0
KRO1 140352Z 09006KT 08/M06 A3032 RMK A01 T00841055  RH  037%=      5-min Rain = 0
KRO1 140353Z 09006KT 08/M06 A3033 RMK A01 T00831056  RH  037%=      5-min Rain = 0
KRO1 140354Z 08005KT 08/M06 A3033 RMK A01 T00831056  RH  037%=      5-min Rain = 0
KRO1 140355Z 09005KT 08/M06 A3033 RMK A01 T00831055  RH  037%=      5-min Rain = 0
KRO1 140356Z 09005KT 08/M06 A3033 RMK A01 T00821056  RH  037%=      5-min Rain = 0
KRO1 140357Z 09005KT 08/M06 A3033 RMK A01 T00821056  RH  037%=      5-min Rain = 0
KRO1 140358Z 09005KT 08/M06 A3033 RMK A01 T00821055  RH  037%=      5-min Rain = 0
KRO1 140359Z 09005KT 08/M06 A3033 RMK A01 T00821056  RH  037%=      5-min Rain = 0
KRO1 140400Z 09005KT 08/M06 A3033 RMK A01 T00821056  RH  037%=      5-min Rain = 0
KRO1 140401Z 09005KT 08/M06 A3033 RMK A01 T00811057  RH  037%=      5-min Rain = 0
KRO1 140402Z 09004KT 08/M06 A3033 RMK A01 T00811057  RH  037%=      5-min Rain = 0
KRO1 140403Z 09004KT 08/M06 A3033 RMK A01 T00811057  RH  037%=      5-min Rain = 0
KRO1 140404Z 09004KT 08/M06 A3033 RMK A01 T00811056  RH  037%=      5-min Rain = 0
KRO1 140405Z 10004KT 08/M06 A3033 RMK A01 T00811057  RH  037%=      5-min Rain = 0
KRO1 140406Z 10005KT 08/M06 A3033 RMK A01 T00811056  RH  037%=      5-min Rain = 0
KRO1 140407Z 10004KT 08/M06 A3033 RMK A01 T00811056  RH  037%=      5-min Rain = 0
KRO1 140408Z 10005KT 08/M06 A3033 RMK A01 T00811056  RH  037%=      5-min Rain = 0
KRO1 140409Z 10006KT 08/M06 A3033 RMK A01 T00801056  RH  037%=      5-min Rain = 0
KRO1 140410Z 10005KT 08/M06 A3033 RMK A01 T00811056  RH  037%=      5-min Rain = 0
KRO1 140411Z 10005KT 08/M06 A3033 RMK A01 T00811057  RH  037%=      5-min Rain = 0
KRO1 140412Z 10005KT 08/M06 A3033 RMK A01 T00801056  RH  037%=      5-min Rain = 0
KRO1 140413Z 10006KT 08/M06 A3033 RMK A01 T00801057  RH  037%=      5-min Rain = 0
KRO1 140414Z 10005KT 08/M06 A3033 RMK A01 T00801056  RH  038%=      5-min Rain = 0
KRO1 140415Z 10005KT 08/M06 A3033 RMK A01 T00791057  RH  037%=      5-min Rain = 0
KRO1 140416Z 10005KT 08/M06 A3033 RMK A01 T00781057  RH  038%=      5-min Rain = 0
KRO1 140417Z 10005KT 08/M06 A3033 RMK A01 T00781057  RH  038%=      5-min Rain = 0
KRO1 140418Z 10006KT 08/M06 A3033 RMK A01 T00781057  RH  038%=      5-min Rain = 0
KRO1 140419Z 10006KT 08/M06 A3033 RMK A01 T00771057  RH  038%=      5-min Rain = 0
KRO1 140420Z 10005KT 08/M06 A3033 RMK A01 T00761057  RH  038%=      5-min Rain = 0
KRO1 140421Z 10005KT 08/M06 A3033 RMK A01 T00761057  RH  038%=      5-min Rain = 0
KRO1 140422Z 11005KT 08/M06 A3033 RMK A01 T00761057  RH  038%=      5-min Rain = 0
KRO1 140423Z 11005KT 08/M06 A3033 RMK A01 T00751057  RH  039%=      5-min Rain = 0
KRO1 140424Z 11005KT 08/M06 A3033 RMK A01 T00751057  RH  039%=      5-min Rain = 0
KRO1 140425Z 11005KT 08/M06 A3033 RMK A01 T00751055  RH  039%=      5-min Rain = 0
KRO1 140426Z 11005KT 08/M06 A3033 RMK A01 T00751055  RH  039%=      5-min Rain = 0
KRO1 140427Z 11005KT 08/M06 A3033 RMK A01 T00751055  RH  039%=      5-min Rain = 0
KRO1 140428Z 11005KT 07/M06 A3033 RMK A01 T00741055  RH  039%=      5-min Rain = 0
KRO1 140429Z 11005KT 07/M06 A3033 RMK A01 T00731055  RH  040%=      5-min Rain = 0
KRO1 140430Z 11005KT 07/M06 A3033 RMK A01 T00731055  RH  040%=      5-min Rain = 0
KRO1 140431Z 11005KT 07/M06 A3033 RMK A01 T00731055  RH  040%=      5-min Rain = 0
KRO1 140432Z 11006KT 07/M06 A3033 RMK A01 T00721056  RH  040%=      5-min Rain = 0
KRO1 140433Z 11006KT 07/M06 A3033 RMK A01 T00721056  RH  040%=      5-min Rain = 0
KRO1 140434Z 11006KT 07/M06 A3033 RMK A01 T00711056  RH  040%=      5-min Rain = 0
KRO1 140435Z 11006KT 07/M06 A3033 RMK A01 T00721056  RH  040%=      5-min Rain = 0
KRO1 140436Z 12005KT 07/M06 A3033 RMK A01 T00711056  RH  040%=      5-min Rain = 0
KRO1 140437Z 12006KT 07/M06 A3033 RMK A01 T00711056  RH  040%=      5-min Rain = 0
KRO1 140438Z 12006KT 07/M06 A3033 RMK A01 T00701056  RH  040%=      5-min Rain = 0
KRO1 140439Z 11006KT 07/M06 A3033 RMK A01 T00691057  RH  040%=      5-min Rain = 0
KRO1 140440Z 11006KT 07/M06 A3033 RMK A01 T00681058  RH  040%=      5-min Rain = 0
KRO1 140441Z 11006KT 07/M06 A3033 RMK A01 T00671058  RH  040%=      5-min Rain = 0
KRO1 140442Z 12005KT 07/M06 A3033 RMK A01 T00671058  RH  041%=      5-min Rain = 0
KRO1 140443Z 12005KT 07/M06 A3033 RMK A01 T00681058  RH  040%=      5-min Rain = 0
KRO1 140444Z 12005KT 07/M06 A3033 RMK A01 T00681059  RH  040%=      5-min Rain = 0
KRO1 140445Z 12005KT 07/M06 A3033 RMK A01 T00671060  RH  040%=      5-min Rain = 0
KRO1 140446Z 12005KT 07/M06 A3033 RMK A01 T00671062  RH  039%=      5-min Rain = 0
KRO1 140447Z 12005KT 07/M06 A3033 RMK A01 T00661063  RH  039%=      5-min Rain = 0
KRO1 140448Z 12004KT 07/M06 A3033 RMK A01 T00661062  RH  039%=      5-min Rain = 0
KRO1 140449Z 12004KT 07/M06 A3033 RMK A01 T00661062  RH  039%=      5-min Rain = 0
KRO1 140450Z 13004KT 07/M06 A3033 RMK A01 T00661062  RH  040%=      5-min Rain = 0
KRO1 140451Z 12004KT 07/M06 A3033 RMK A01 T00661064  RH  039%=      5-min Rain = 0
KRO1 140452Z 12004KT 07/M07 A3033 RMK A01 T00651065  RH  039%=      5-min Rain = 0
KRO1 140453Z 12003KT 07/M06 A3033 RMK A01 T00651064  RH  039%=      5-min Rain = 0
KRO1 140454Z 11004KT 07/M06 A3033 RMK A01 T00651064  RH  039%=      5-min Rain = 0
KRO1 140455Z 11003KT 07/M06 A3033 RMK A01 T00651063  RH  039%=      5-min Rain = 0
KRO1 140456Z 11003KT 07/M06 A3033 RMK A01 T00651062  RH  040%=      5-min Rain = 0
KRO1 140457Z 11003KT 07/M06 A3033 RMK A01 T00651061  RH  040%=      5-min Rain = 0
KRO1 140458Z 11003KT 07/M06 A3033 RMK A01 T00661060  RH  040%=      5-min Rain = 0
KRO1 140459Z 10003KT 07/M06 A3033 RMK A01 T00671060  RH  040%=      5-min Rain = 0

Page generated in 0.0365 seconds.